Wetterdaten: Mittwoch, 13.06.2018
Datum Zeit Temp. Aussen Temp. o. S. +5cm Feuchte Auss Luftdruck Regen Sonnenschein Regendauer Solar Windben Empfang
13.06.2018 00:00 14,5 C 13,9 C 13,3 C 85 % 1012,5 hPa 0,0 l/m 0 min 0 min 0 W/m 2,3 km/h (1 Bft) 95,74 %
13.06.2018 00:02 14,5 C 13,9 C 13,3 C 85 % 1012,5 hPa 0,0 l/m 0 min 0 min 0 W/m 9,0 km/h (2 Bft) 97,06 %
13.06.2018 00:04 14,4 C 13,9 C 13,3 C 85 % 1012,5 hPa 0,0 l/m 0 min 0 min 0 W/m 4,5 km/h (1 Bft) 97,87 %
13.06.2018 00:07 14,4 C 13,9 C 13,3 C 85 % 1012,6 hPa 0,0 l/m 0 min 0 min 0 W/m 4,5 km/h (1 Bft) 97,87 %
13.06.2018 00:10 14,4 C 13,9 C 13,3 C 85 % 1012,5 hPa 0,0 l/m 0 min 0 min 0 W/m 4,5 km/h (1 Bft) 97,14 %
13.06.2018 00:12 14,4 C 13,9 C 13,3 C 85 % 1012,4 hPa 0,0 l/m 0 min 0 min 0 W/m 2,3 km/h (1 Bft) 95,74 %
13.06.2018 00:14 14,4 C 13,9 C 13,3 C 85 % 1012,4 hPa 0,0 l/m 0 min 0 min 0 W/m 4,5 km/h (1 Bft) 97,87 %
13.06.2018 00:16 14,4 C 13,3 C 13,3 C 85 % 1012,4 hPa 0,0 l/m 0 min 0 min 0 W/m 6,8 km/h (2 Bft) 100,00 %
13.06.2018 00:18 14,3 C 13,3 C 13,3 C 85 % 1012,5 hPa 0,0 l/m 0 min 0 min 0 W/m 9,0 km/h (2 Bft) 100,00 %
13.06.2018 00:20 14,3 C 13,3 C 13,3 C 85 % 1012,4 hPa 0,0 l/m 0 min 0 min 0 W/m 6,8 km/h (2 Bft) 100,00 %
13.06.2018 00:22 14,3 C 13,3 C 13,3 C 85 % 1012,4 hPa 0,0 l/m 0 min 0 min 0 W/m 9,0 km/h (2 Bft) 100,00 %
13.06.2018 00:24 14,3 C 13,3 C 13,3 C 86 % 1012,4 hPa 0,0 l/m 0 min 0 min 0 W/m 2,3 km/h (1 Bft) 100,00 %
13.06.2018 00:26 14,2 C 13,3 C 13,3 C 86 % 1012,4 hPa 0,0 l/m 0 min 0 min 0 W/m 9,0 km/h (2 Bft) 100,00 %
13.06.2018 00:28 14,2 C 13,3 C 13,3 C 86 % 1012,5 hPa 0,0 l/m 0 min 0 min 0 W/m 6,8 km/h (2 Bft) 100,00 %
13.06.2018 00:30 14,2 C 13,3 C 13,3 C 86 % 1012,4 hPa 0,0 l/m 0 min 0 min 0 W/m 6,8 km/h (2 Bft) 100,00 %
13.06.2018 00:32 14,2 C 13,3 C 13,3 C 86 % 1012,4 hPa 0,0 l/m 0 min 0 min 0 W/m 6,8 km/h (2 Bft) 100,00 %
13.06.2018 00:34 14,2 C 13,3 C 13,3 C 86 % 1012,4 hPa 0,0 l/m 0 min 0 min 0 W/m 2,3 km/h (1 Bft) 97,87 %
13.06.2018 00:36 14,2 C 13,3 C 13,3 C 86 % 1012,4 hPa 0,0 l/m 0 min 0 min 0 W/m 4,5 km/h (1 Bft) 100,00 %
13.06.2018 00:38 14,2 C 12,8 C 13,3 C 86 % 1012,4 hPa 0,0 l/m 0 min 0 min 0 W/m 4,5 km/h (1 Bft) 100,00 %
13.06.2018 00:40 14,2 C 12,8 C 13,3 C 86 % 1012,4 hPa 0,0 l/m 0 min 0 min 0 W/m 4,5 km/h (1 Bft) 100,00 %
13.06.2018 00:42 14,2 C 12,8 C 13,3 C 86 % 1012,4 hPa 0,0 l/m 0 min 0 min 0 W/m 6,8 km/h (2 Bft) 97,87 %
13.06.2018 00:44 14,2 C 12,8 C 13,3 C 86 % 1012,5 hPa 0,0 l/m 0 min 0 min 0 W/m 4,5 km/h (1 Bft) 95,74 %
13.06.2018 00:46 14,1 C 12,8 C 12,8 C 87 % 1012,4 hPa 0,0 l/m 0 min 0 min 0 W/m 4,5 km/h (1 Bft) 100,00 %
13.06.2018 00:48 14,1 C 12,8 C 12,8 C 86 % 1012,5 hPa 0,0 l/m 0 min 0 min 0 W/m 2,3 km/h (1 Bft) 100,00 %
13.06.2018 00:50 14,0 C 12,8 C 12,8 C 87 % 1012,5 hPa 0,0 l/m 0 min 0 min 0 W/m 4,5 km/h (1 Bft) 100,00 %
13.06.2018 00:52 14,0 C 12,8 C 12,8 C 87 % 1012,6 hPa 0,0 l/m 0 min 0 min 0 W/m 6,8 km/h (2 Bft) 100,00 %
13.06.2018 00:54 13,9 C 12,8 C 12,8 C 87 % 1012,6 hPa 0,0 l/m 0 min 0 min 0 W/m 6,8 km/h (2 Bft) 97,87 %
13.06.2018 00:56 13,9 C 12,8 C 12,8 C 87 % 1012,6 hPa 0,0 l/m 0 min 0 min 0 W/m 9,0 km/h (2 Bft) 97,87 %
13.06.2018 00:58 13,9 C 12,8 C 12,8 C 87 % 1012,6 hPa 0,0 l/m 0 min 0 min 0 W/m 4,5 km/h (1 Bft) 97,87 %
13.06.2018 01:00 13,8 C 12,8 C 12,8 C 87 % 1012,6 hPa 0,0 l/m 0 min 0 min 0 W/m 9,0 km/h (2 Bft) 97,87 %
13.06.2018 01:02 13,8 C 12,8 C 12,8 C 87 % 1012,6 hPa 0,0 l/m 0 min 0 min 0 W/m 9,0 km/h (2 Bft) 97,87 %
13.06.2018 01:04 13,8 C 12,2 C 12,8 C 87 % 1012,6 hPa 0,0 l/m 0 min 0 min 0 W/m 6,8 km/h (2 Bft) 97,83 %
13.06.2018 01:06 13,7 C 12,2 C 12,8 C 87 % 1012,6 hPa 0,0 l/m 0 min 0 min 0 W/m 9,0 km/h (2 Bft) 97,87 %
13.06.2018 01:08 13,7 C 12,2 C 12,8 C 87 % 1012,6 hPa 0,0 l/m 0 min 0 min 0 W/m 4,5 km/h (1 Bft) 97,87 %
13.06.2018 01:10 13,6 C 12,2 C 12,8 C 87 % 1012,7 hPa 0,0 l/m 0 min 0 min 0 W/m 6,8 km/h (2 Bft) 95,74 %
13.06.2018 01:12 13,6 C 12,2 C 12,8 C 87 % 1012,7 hPa 0,0 l/m 0 min 0 min 0 W/m 9,0 km/h (2 Bft) 97,87 %
13.06.2018 01:14 13,6 C 12,2 C 12,8 C 88 % 1012,7 hPa 0,0 l/m 0 min 0 min 0 W/m 6,8 km/h (2 Bft) 97,83 %
13.06.2018 01:16 13,5 C 12,2 C 12,8 C 88 % 1012,7 hPa 0,0 l/m 0 min 0 min 0 W/m 2,3 km/h (1 Bft) 95,74 %
13.06.2018 01:18 13,4 C 12,2 C 12,8 C 88 % 1012,7 hPa 0,0 l/m 0 min 0 min 0 W/m 6,8 km/h (2 Bft) 97,87 %
13.06.2018 01:20 13,4 C 12,2 C 12,8 C 88 % 1012,7 hPa 0,0 l/m 0 min 0 min 0 W/m 4,5 km/h (1 Bft) 97,87 %
13.06.2018 01:22 13,4 C 12,2 C 12,8 C 88 % 1012,8 hPa 0,0 l/m 0 min 0 min 0 W/m 4,5 km/h (1 Bft) 97,87 %
13.06.2018 01:24 13,3 C 12,2 C 12,8 C 88 % 1012,7 hPa 0,0 l/m 0 min 0 min 0 W/m 9,0 km/h (2 Bft) 97,87 %
13.06.2018 01:26 13,3 C 12,2 C 12,2 C 88 % 1012,7 hPa 0,0 l/m 0 min 0 min 0 W/m 4,5 km/h (1 Bft) 97,83 %
13.06.2018 01:28 13,3 C 12,2 C 12,2 C 88 % 1012,7 hPa 0,0 l/m 0 min 0 min 0 W/m 6,8 km/h (2 Bft) 95,74 %
13.06.2018 01:30 13,2 C 12,2 C 12,2 C 88 % 1012,7 hPa 0,0 l/m 0 min 0 min 0 W/m 6,8 km/h (2 Bft) 97,87 %
13.06.2018 01:32 13,2 C 12,2 C 12,2 C 88 % 1012,7 hPa 0,0 l/m 0 min 0 min 0 W/m 4,5 km/h (1 Bft) 97,87 %
13.06.2018 01:34 13,2 C 12,2 C 12,2 C 88 % 1012,7 hPa 0,0 l/m 0 min 0 min 0 W/m 4,5 km/h (1 Bft) 97,87 %
13.06.2018 01:36 13,2 C 12,2 C 12,2 C 88 % 1012,7 hPa 0,0 l/m 0 min 0 min 0 W/m 6,8 km/h (2 Bft) 97,87 %
13.06.2018 01:38 13,1 C 12,2 C 12,2 C 88 % 1012,7 hPa 0,0 l/m 0 min 0 min 0 W/m 9,0 km/h (2 Bft) 95,65 %
13.06.2018 01:40 13,1 C 12,2 C 12,2 C 88 % 1012,7 hPa 0,0 l/m 0 min 0 min 0 W/m 9,0 km/h (2 Bft) 97,87 %
13.06.2018 01:42 13,1 C 11,7 C 12,2 C 88 % 1012,6 hPa 0,0 l/m 0 min 0 min 0 W/m 0,0 km/h (0 Bft) 97,87 %
13.06.2018 01:44 13,0 C 11,7 C 12,2 C 88 % 1012,7 hPa 0,0 l/m 0 min 0 min 0 W/m 4,5 km/h (1 Bft) 93,62 %
13.06.2018 01:46 13,0 C 11,7 C 12,2 C 89 % 1012,7 hPa 0,0 l/m 0 min 0 min 0 W/m 4,5 km/h (1 Bft) 95,74 %
13.06.2018 01:48 12,9 C 11,7 C 12,2 C 89 % 1012,7 hPa 0,0 l/m 0 min 0 min 0 W/m 6,8 km/h (2 Bft) 100,00 %
13.06.2018 01:50 12,9 C 11,7 C 12,2 C 89 % 1012,7 hPa 0,0 l/m 0 min 0 min 0 W/m 6,8 km/h (2 Bft) 97,83 %
13.06.2018 01:52 12,9 C 11,7 C 12,2 C 89 % 1012,7 hPa 0,0 l/m 0 min 0 min 0 W/m 6,8 km/h (2 Bft) 95,74 %
13.06.2018 01:54 12,8 C 11,7 C 12,2 C 89 % 1012,7 hPa 0,0 l/m 0 min 0 min 0 W/m 6,8 km/h (2 Bft) 97,87 %
13.06.2018 01:56 12,8 C 11,7 C 12,2 C 89 % 1012,6 hPa 0,0 l/m 0 min 0 min 0 W/m 2,3 km/h (1 Bft) 100,00 %
13.06.2018 01:58 12,8 C 11,7 C 12,2 C 89 % 1012,6 hPa 0,0 l/m 0 min 0 min 0 W/m 2,3 km/h (1 Bft) 100,00 %
13.06.2018 02:00 12,7 C 11,7 C 12,2 C 89 % 1012,6 hPa 0,0 l/m 0 min 0 min 0 W/m 4,5 km/h (1 Bft) 95,74 %
13.06.2018 02:02 12,7 C 11,7 C 12,2 C 89 % 1012,7 hPa 0,0 l/m 0 min 0 min 0 W/m 2,3 km/h (1 Bft) 95,65 %
13.06.2018 02:04 12,7 C 11,7 C 12,2 C 89 % 1012,7 hPa 0,0 l/m 0 min 0 min 0 W/m 2,3 km/h (1 Bft) 95,74 %
13.06.2018 02:06 12,7 C 11,7 C 12,2 C 89 % 1012,7 hPa 0,0 l/m 0 min 0 min 0 W/m 4,5 km/h (1 Bft) 98,11 %
13.06.2018 02:08 12,7 C 11,7 C 12,2 C 89 % 1012,7 hPa 0,0 l/m 0 min 0 min 0 W/m 2,3 km/h (1 Bft) 97,87 %
13.06.2018 02:10 12,6 C 11,7 C 12,2 C 89 % 1012,7 hPa 0,0 l/m 0 min 0 min 0 W/m 4,5 km/h (1 Bft) 93,62 %
13.06.2018 02:12 12,6 C 11,7 C 11,7 C 89 % 1012,7 hPa 0,0 l/m 0 min 0 min 0 W/m 2,3 km/h (1 Bft) 95,74 %
13.06.2018 02:14 12,6 C 11,1 C 11,7 C 89 % 1012,7 hPa 0,0 l/m 0 min 0 min 0 W/m 2,3 km/h (1 Bft) 97,83 %
13.06.2018 02:16 12,5 C 11,1 C 11,7 C 89 % 1012,7 hPa 0,0 l/m 0 min 0 min 0 W/m 2,3 km/h (1 Bft) 95,74 %
13.06.2018 02:18 12,5 C 11,1 C 11,7 C 89 % 1012,7 hPa 0,0 l/m 0 min 0 min 0 W/m 6,8 km/h (2 Bft) 97,87 %
13.06.2018 02:20 12,4 C 11,1 C 11,7 C 89 % 1012,8 hPa 0,0 l/m 0 min 0 min 0 W/m 4,5 km/h (1 Bft) 97,87 %
13.06.2018 02:22 12,4 C 11,1 C 11,7 C 89 % 1012,7 hPa 0,0 l/m 0 min 0 min 0 W/m 4,5 km/h (1 Bft) 95,74 %
13.06.2018 02:24 12,4 C 11,1 C 11,7 C 89 % 1012,7 hPa 0,0 l/m 0 min 0 min 0 W/m 6,8 km/h (2 Bft) 97,87 %
13.06.2018 02:26 12,3 C 11,1 C 11,7 C 89 % 1012,7 hPa 0,0 l/m 0 min 0 min 0 W/m 2,3 km/h (1 Bft) 95,65 %
13.06.2018 02:28 12,3 C 11,1 C 11,7 C 89 % 1012,8 hPa 0,0 l/m 0 min 0 min 0 W/m 4,5 km/h (1 Bft) 97,87 %
13.06.2018 02:30 12,3 C 11,1 C 11,7 C 89 % 1012,8 hPa 0,0 l/m 0 min 0 min 0 W/m 2,3 km/h (1 Bft) 97,87 %
13.06.2018 02:32 12,2 C 11,1 C 11,7 C 90 % 1012,7 hPa 0,0 l/m 0 min 0 min 0 W/m 4,5 km/h (1 Bft) 97,87 %
13.06.2018 02:34 12,2 C 11,1 C 11,7 C 90 % 1012,8 hPa 0,0 l/m 0 min 0 min 0 W/m 4,5 km/h (1 Bft) 97,87 %
13.06.2018 02:36 12,2 C 11,1 C 11,7 C 90 % 1012,8 hPa 0,0 l/m 0 min 0 min 0 W/m 2,3 km/h (1 Bft) 97,87 %
13.06.2018 02:38 12,2 C 11,1 C 11,7 C 90 % 1012,8 hPa 0,0 l/m 0 min 0 min 0 W/m 2,3 km/h (1 Bft) 97,83 %
13.06.2018 02:40 12,1 C 11,1 C 11,7 C 90 % 1012,9 hPa 0,0 l/m 0 min 0 min 0 W/m 2,3 km/h (1 Bft) 95,74 %
13.06.2018 02:42 12,1 C 11,1 C 11,7 C 90 % 1012,9 hPa 0,0 l/m 0 min 0 min 0 W/m 2,3 km/h (1 Bft) 100,00 %
13.06.2018 02:44 12,1 C 11,1 C 11,7 C 90 % 1012,9 hPa 0,0 l/m 0 min 0 min 0 W/m 4,5 km/h (1 Bft) 100,00 %
13.06.2018 02:46 12,1 C 11,1 C 11,7 C 90 % 1012,9 hPa 0,0 l/m 0 min 0 min 0 W/m 4,5 km/h (1 Bft) 100,00 %
13.06.2018 02:48 12,1 C 11,1 C 11,7 C 90 % 1012,9 hPa 0,0 l/m 0 min 0 min 0 W/m 2,3 km/h (1 Bft) 100,00 %
13.06.2018 02:50 12,1 C 11,1 C 11,7 C 90 % 1012,9 hPa 0,0 l/m 0 min 0 min 0 W/m 0,0 km/h (0 Bft) 100,00 %
13.06.2018 02:52 12,1 C 11,1 C 11,7 C 90 % 1012,9 hPa 0,0 l/m 0 min 0 min 0 W/m 0,0 km/h (0 Bft) 97,92 %
13.06.2018 02:54 12,1 C 11,1 C 11,7 C 90 % 1012,9 hPa 0,0 l/m 0 min 0 min 0 W/m 0,0 km/h (0 Bft) 97,87 %
13.06.2018 02:56 12,0 C 11,1 C 11,7 C 90 % 1012,9 hPa 0,0 l/m 0 min 0 min 0 W/m 0,0 km/h (0 Bft) 100,00 %
13.06.2018 02:58 12,0 C 11,1 C 11,7 C 91 % 1012,9 hPa 0,0 l/m 0 min 0 min 0 W/m 0,0 km/h (0 Bft) 97,87 %
13.06.2018 03:00 12,1 C 11,1 C 11,7 C 91 % 1012,9 hPa 0,0 l/m 0 min 0 min 0 W/m 2,3 km/h (1 Bft) 97,83 %
13.06.2018 03:02 12,1 C 11,1 C 11,7 C 91 % 1012,9 hPa 0,0 l/m 0 min 0 min 0 W/m 2,3 km/h (1 Bft) 97,87 %
13.06.2018 03:04 12,1 C 11,1 C 11,7 C 91 % 1013,0 hPa 0,0 l/m 0 min 0 min 0 W/m 2,3 km/h (1 Bft) 97,87 %
13.06.2018 03:06 12,1 C 11,7 C 11,7 C 91 % 1012,9 hPa 0,0 l/m 0 min 0 min 0 W/m 0,0 km/h (0 Bft) 95,83 %
13.06.2018 03:08 12,1 C 11,7 C 11,7 C 91 % 1012,9 hPa 0,0 l/m 0 min 0 min 0 W/m 2,3 km/h (1 Bft) 95,74 %
13.06.2018 03:10 12,1 C 11,7 C 11,7 C 91 % 1012,9 hPa 0,0 l/m 0 min 0 min 0 W/m 0,0 km/h (0 Bft) 97,87 %
13.06.2018 03:12 12,1 C 11,7 C 11,7 C 91 % 1012,9 hPa 0,0 l/m 0 min 0 min 0 W/m 0,0 km/h (0 Bft) 97,83 %
13.06.2018 03:14 12,1 C 11,7 C 11,7 C 91 % 1012,9 hPa 0,0 l/m 0 min 0 min 0 W/m 0,0 km/h (0 Bft) 97,87 %
13.06.2018 03:16 12,1 C 11,7 C 11,7 C 92 % 1012,8 hPa 0,0 l/m 0 min 0 min 0 W/m 0,0 km/h (0 Bft) 97,87 %
13.06.2018 03:18 12,1 C 11,7 C 11,7 C 92 % 1012,8 hPa 0,0 l/m 0 min 0 min 0 W/m 0,0 km/h (0 Bft) 97,87 %
13.06.2018 03:20 12,1 C 11,7 C 11,7 C 92 % 1012,8 hPa 0,0 l/m 0 min 0 min 0 W/m 0,0 km/h (0 Bft) 97,87 %
13.06.2018 03:22 12,1 C 11,7 C 11,7 C 92 % 1012,7 hPa 0,0 l/m 0 min 0 min 0 W/m 0,0 km/h (0 Bft) 97,83 %
13.06.2018 03:24 12,1 C 11,7 C 11,7 C 92 % 1012,8 hPa 0,0 l/m 0 min 0 min 0 W/m 0,0 km/h (0 Bft) 97,87 %
13.06.2018 03:26 12,1 C 11,7 C 11,7 C 92 % 1012,8 hPa 0,0 l/m 0 min 0 min 0 W/m 0,0 km/h (0 Bft) 95,74 %
13.06.2018 03:28 12,1 C 11,7 C 11,7 C 92 % 1012,8 hPa 0,0 l/m 0 min 0 min 0 W/m 0,0 km/h (0 Bft) 97,87 %
13.06.2018 03:30 12,1 C 11,7 C 11,7 C 92 % 1012,9 hPa 0,0 l/m 0 min 0 min 0 W/m 0,0 km/h (0 Bft) 97,87 %
13.06.2018 03:32 12,1 C 11,7 C 11,7 C 92 % 1012,9 hPa 0,0 l/m 0 min 0 min 0 W/m 0,0 km/h (0 Bft) 95,74 %
13.06.2018 03:34 12,1 C 11,7 C 11,7 C 92 % 1012,9 hPa 0,0 l/m 0 min 0 min 0 W/m 0,0 km/h (0 Bft) 95,65 %
13.06.2018 03:36 12,1 C 11,7 C 11,7 C 92 % 1012,9 hPa 0,0 l/m 0 min 0 min 0 W/m 0,0 km/h (0 Bft) 97,87 %
13.06.2018 03:38 12,1 C 11,7 C 11,7 C 92 % 1012,9 hPa 0,0 l/m 0 min 0 min 0 W/m 0,0 km/h (0 Bft) 97,87 %
13.06.2018 03:40 12,1 C 11,7 C 11,7 C 92 % 1012,9 hPa 0,0 l/m 0 min 0 min 0 W/m 0,0 km/h (0 Bft) 97,87 %
13.06.2018 03:42 12,2 C 11,7 C 11,7 C 92 % 1012,9 hPa 0,0 l/m 0 min 0 min 0 W/m 0,0 km/h (0 Bft) 97,87 %
13.06.2018 03:44 12,2 C 11,7 C 11,7 C 92 % 1012,9 hPa 0,0 l/m 0 min 0 min 0 W/m 0,0 km/h (0 Bft) 97,87 %
13.06.2018 03:46 12,2 C 11,7 C 11,7 C 92 % 1012,8 hPa 0,0 l/m 0 min 0 min 0 W/m 0,0 km/h (0 Bft) 97,83 %
13.06.2018 03:48 12,2 C 11,7 C 11,7 C 92 % 1012,8 hPa 0,0 l/m 0 min 0 min 0 W/m 0,0 km/h (0 Bft) 95,74 %
13.06.2018 03:50 12,2 C 11,7 C 11,7 C 92 % 1012,9 hPa 0,0 l/m 0 min 0 min 0 W/m 0,0 km/h (0 Bft) 97,87 %
13.06.2018 03:52 12,2 C 11,7 C 11,7 C 93 % 1012,9 hPa 0,0 l/m 0 min 0 min 0 W/m 2,3 km/h (1 Bft) 97,87 %
13.06.2018 03:54 12,2 C 12,2 C 11,7 C 93 % 1012,9 hPa 0,0 l/m 0 min 0 min 0 W/m 0,0 km/h (0 Bft) 97,87 %
13.06.2018 03:56 12,2 C 12,2 C 11,7 C 93 % 1012,9 hPa 0,0 l/m 0 min 0 min 0 W/m 0,0 km/h (0 Bft) 97,87 %
13.06.2018 03:58 12,2 C 12,2 C 11,7 C 93 % 1012,9 hPa 0,0 l/m 0 min 0 min 0 W/m 2,3 km/h (1 Bft) 97,83 %
13.06.2018 04:00 12,3 C 12,2 C 12,2 C 93 % 1012,9 hPa 0,0 l/m 0 min 0 min 0 W/m 2,3 km/h (1 Bft) 97,87 %
13.06.2018 04:02 12,3 C 12,2 C 12,2 C 93 % 1012,9 hPa 0,0 l/m 0 min 0 min 0 W/m 2,3 km/h (1 Bft) 97,14 %
13.06.2018 04:04 12,3 C 12,2 C 12,2 C 93 % 1012,9 hPa 0,0 l/m 0 min 0 min 0 W/m 0,0 km/h (0 Bft) 93,62 %
13.06.2018 04:06 12,3 C 12,2 C 12,2 C 93 % 1012,9 hPa 0,0 l/m 0 min 0 min 0 W/m 2,3 km/h (1 Bft) 95,74 %
13.06.2018 04:08 12,3 C 12,2 C 12,2 C 93 % 1012,9 hPa 0,0 l/m 0 min 0 min 0 W/m 0,0 km/h (0 Bft) 93,62 %
13.06.2018 04:10 12,3 C 12,2 C 12,2 C 93 % 1012,9 hPa 0,0 l/m 0 min 0 min 0 W/m 0,0 km/h (0 Bft) 95,65 %
13.06.2018 04:12 12,3 C 12,2 C 12,2 C 93 % 1013,0 hPa 0,0 l/m 0 min 0 min 0 W/m 0,0 km/h (0 Bft) 95,74 %
13.06.2018 04:14 12,3 C 12,2 C 12,2 C 93 % 1013,1 hPa 0,0 l/m 0 min 0 min 0 W/m 2,3 km/h (1 Bft) 95,74 %
13.06.2018 04:16 12,3 C 12,2 C 12,2 C 93 % 1013,1 hPa 0,0 l/m 0 min 0 min 0 W/m 4,5 km/h (1 Bft) 95,74 %
13.06.2018 04:18 12,4 C 12,2 C 12,2 C 93 % 1013,0 hPa 0,0 l/m 0 min 0 min 0 W/m 0,0 km/h (0 Bft) 93,62 %
13.06.2018 04:20 12,4 C 12,2 C 12,2 C 93 % 1013,0 hPa 0,0 l/m 0 min 0 min 0 W/m 4,5 km/h (1 Bft) 91,49 %
13.06.2018 04:22 12,4 C 11,7 C 12,2 C 93 % 1013,0 hPa 0,0 l/m 0 min 0 min 0 W/m 6,8 km/h (2 Bft) 95,74 %
13.06.2018 04:24 12,4 C 11,7 C 12,2 C 93 % 1013,0 hPa 0,0 l/m 0 min 0 min 0 W/m 0,0 km/h (0 Bft) 93,62 %
13.06.2018 04:26 12,4 C 11,7 C 12,2 C 93 % 1013,0 hPa 0,0 l/m 0 min 0 min 0 W/m 2,3 km/h (1 Bft) 95,74 %
13.06.2018 04:28 12,4 C 11,7 C 12,2 C 93 % 1013,0 hPa 0,0 l/m 0 min 0 min 0 W/m 2,3 km/h (1 Bft) 95,74 %
13.06.2018 04:30 12,4 C 12,2 C 12,2 C 93 % 1013,0 hPa 0,0 l/m 0 min 0 min 0 W/m 2,3 km/h (1 Bft) 93,62 %
13.06.2018 04:32 12,4 C 12,2 C 12,2 C 93 % 1013,0 hPa 0,0 l/m 0 min 0 min 0 W/m 2,3 km/h (1 Bft) 95,65 %
13.06.2018 04:34 12,4 C 12,2 C 12,2 C 93 % 1013,0 hPa 0,0 l/m 0 min 0 min 0 W/m 2,3 km/h (1 Bft) 93,62 %
13.06.2018 04:36 12,4 C 12,2 C 12,2 C 93 % 1013,0 hPa 0,0 l/m 0 min 0 min 0 W/m 2,3 km/h (1 Bft) 95,74 %
13.06.2018 04:38 12,4 C 12,2 C 12,2 C 93 % 1013,0 hPa 0,0 l/m 0 min 0 min 0 W/m 4,5 km/h (1 Bft) 93,62 %
13.06.2018 04:40 12,4 C 12,2 C 12,2 C 93 % 1013,1 hPa 0,0 l/m 0 min 0 min 0 W/m 2,3 km/h (1 Bft) 95,74 %
13.06.2018 04:42 12,4 C 12,2 C 12,2 C 93 % 1013,0 hPa 0,0 l/m 0 min 0 min 0 W/m 4,5 km/h (1 Bft) 95,74 %
13.06.2018 04:44 12,4 C 12,2 C 12,2 C 93 % 1013,1 hPa 0,0 l/m 0 min 0 min 0 W/m 9,0 km/h (2 Bft) 93,48 %
13.06.2018 04:46 12,4 C 12,2 C 12,2 C 93 % 1013,1 hPa 0,0 l/m 0 min 0 min 0 W/m 4,5 km/h (1 Bft) 93,62 %
13.06.2018 04:48 12,4 C 12,2 C 12,2 C 93 % 1013,0 hPa 0,0 l/m 0 min 0 min 0 W/m 6,8 km/h (2 Bft) 95,74 %
13.06.2018 04:50 12,4 C 12,2 C 12,2 C 93 % 1013,1 hPa 0,0 l/m 0 min 0 min 0 W/m 6,8 km/h (2 Bft) 94,74 %
13.06.2018 04:52 12,4 C 12,2 C 12,2 C 93 % 1013,1 hPa 0,0 l/m 0 min 0 min 0 W/m 0,0 km/h (0 Bft) 93,62 %
13.06.2018 04:54 12,4 C 12,2 C 12,2 C 93 % 1013,1 hPa 0,0 l/m 0 min 0 min 0 W/m 6,8 km/h (2 Bft) 95,74 %
13.06.2018 04:56 12,4 C 12,2 C 12,2 C 93 % 1013,1 hPa 0,0 l/m 0 min 0 min 0 W/m 2,3 km/h (1 Bft) 91,49 %
13.06.2018 04:58 12,4 C 12,2 C 12,2 C 93 % 1013,1 hPa 0,0 l/m 0 min 0 min 0 W/m 2,3 km/h (1 Bft) 97,83 %
13.06.2018 05:00 12,4 C 12,2 C 12,2 C 93 % 1013,1 hPa 0,0 l/m 0 min 0 min 0 W/m 4,5 km/h (1 Bft) 97,87 %
13.06.2018 05:02 12,4 C 12,2 C 12,2 C 93 % 1013,1 hPa 0,0 l/m 0 min 0 min 0 W/m 11,3 km/h (2 Bft) 100,00 %
13.06.2018 05:04 12,4 C 12,2 C 12,2 C 93 % 1013,1 hPa 0,0 l/m 0 min 0 min 0 W/m 6,8 km/h (2 Bft) 100,00 %
13.06.2018 05:08 12,4 C 12,2 C 12,2 C 93 % 1013,2 hPa 0,0 l/m 0 min 0 min 0 W/m 9,0 km/h (2 Bft) 98,08 %
13.06.2018 05:10 12,4 C 12,2 C 12,2 C 93 % 1013,2 hPa 0,0 l/m 0 min 0 min 0 W/m 6,8 km/h (2 Bft) 100,00 %
13.06.2018 05:12 12,5 C 12,2 C 12,2 C 93 % 1013,2 hPa 0,0 l/m 0 min 0 min 0 W/m 2,3 km/h (1 Bft) 100,00 %
13.06.2018 05:14 12,5 C 12,2 C 12,2 C 93 % 1013,2 hPa 0,0 l/m 0 min 0 min 0 W/m 4,5 km/h (1 Bft) 100,00 %
13.06.2018 05:16 12,5 C 12,2 C 12,2 C 93 % 1013,2 hPa 0,0 l/m 0 min 0 min 0 W/m 9,0 km/h (2 Bft) 100,00 %
13.06.2018 05:18 12,5 C 12,2 C 12,2 C 93 % 1013,2 hPa 0,0 l/m 0 min 0 min 0 W/m 2,3 km/h (1 Bft) 100,00 %
13.06.2018 05:20 12,5 C 12,2 C 12,2 C 93 % 1013,2 hPa 0,0 l/m 0 min 0 min 0 W/m 6,8 km/h (2 Bft) 100,00 %
13.06.2018 05:22 12,5 C 12,2 C 12,2 C 93 % 1013,2 hPa 0,0 l/m 0 min 0 min 0 W/m 2,3 km/h (1 Bft) 100,00 %
13.06.2018 05:24 12,5 C 12,2 C 12,2 C 93 % 1013,2 hPa 0,0 l/m 0 min 0 min 0 W/m 4,5 km/h (1 Bft) 100,00 %
13.06.2018 05:26 12,6 C 12,2 C 12,2 C 93 % 1013,3 hPa 0,0 l/m 0 min 0 min 1 W/m 4,5 km/h (1 Bft) 97,87 %
13.06.2018 05:28 12,6 C 12,2 C 12,2 C 93 % 1013,2 hPa 0,0 l/m 0 min 0 min 5 W/m 6,8 km/h (2 Bft) 100,00 %
13.06.2018 05:30 12,6 C 12,2 C 12,2 C 92 % 1013,2 hPa 0,0 l/m 0 min 0 min 5 W/m 2,3 km/h (1 Bft) 100,00 %
13.06.2018 05:32 12,6 C 12,2 C 12,2 C 92 % 1013,3 hPa 0,0 l/m 0 min 0 min 5 W/m 6,8 km/h (2 Bft) 97,83 %
13.06.2018 05:34 12,6 C 12,2 C 12,2 C 92 % 1013,3 hPa 0,0 l/m 0 min 0 min 7 W/m 2,3 km/h (1 Bft) 100,00 %
13.06.2018 05:35 12,6 C 12,2 C 12,2 C 92 % 1013,3 hPa 0,0 l/m 0 min 0 min 6 W/m 6,8 km/h (2 Bft) 100,00 %
13.06.2018 05:43 12,6 C 12,2 C 12,2 C 92 % 1013,2 hPa 0,0 l/m 0 min 0 min 8 W/m 2,3 km/h (1 Bft) 100,00 %
13.06.2018 05:44 12,6 C 12,2 C 12,2 C 92 % 1013,2 hPa 0,0 l/m 0 min 0 min 9 W/m 0,0 km/h (0 Bft) 91,67 %
13.06.2018 05:46 12,6 C 12,2 C 12,2 C 92 % 1013,3 hPa 0,0 l/m 0 min 0 min 11 W/m 6,8 km/h (2 Bft) 97,83 %
13.06.2018 05:48 12,7 C 12,8 C 12,2 C 92 % 1013,3 hPa 0,0 l/m 0 min 0 min 11 W/m 2,3 km/h (1 Bft) 100,00 %
13.06.2018 05:50 12,7 C 12,8 C 12,2 C 92 % 1013,3 hPa 0,0 l/m 0 min 0 min 11 W/m 4,5 km/h (1 Bft) 97,87 %
13.06.2018 05:52 12,7 C 12,8 C 12,2 C 92 % 1013,3 hPa 0,0 l/m 0 min 0 min 12 W/m 6,8 km/h (2 Bft) 100,00 %
13.06.2018 05:54 12,7 C 12,8 C 12,2 C 92 % 1013,3 hPa 0,0 l/m 0 min 0 min 12 W/m 11,3 km/h (2 Bft) 100,00 %
13.06.2018 05:56 12,7 C 12,8 C 12,2 C 92 % 1013,3 hPa 0,0 l/m 0 min 0 min 14 W/m 4,5 km/h (1 Bft) 97,83 %
13.06.2018 05:58 12,7 C 12,8 C 12,2 C 92 % 1013,4 hPa 0,0 l/m 0 min 0 min 15 W/m 4,5 km/h (1 Bft) 100,00 %
13.06.2018 06:00 12,7 C 12,8 C 12,2 C 92 % 1013,3 hPa 0,0 l/m 0 min 0 min 16 W/m 4,5 km/h (1 Bft) 100,00 %
13.06.2018 06:02 12,7 C 12,8 C 12,2 C 92 % 1013,3 hPa 0,0 l/m 0 min 0 min 17 W/m 4,5 km/h (1 Bft) 100,00 %
13.06.2018 06:04 12,7 C 12,8 C 12,2 C 92 % 1013,4 hPa 0,0 l/m 0 min 0 min 18 W/m 6,8 km/h (2 Bft) 100,00 %
13.06.2018 06:08 12,7 C 12,8 C 12,2 C 91 % 1013,4 hPa 0,0 l/m 0 min 0 min 16 W/m 6,8 km/h (2 Bft) 100,00 %
13.06.2018 06:10 12,8 C 12,8 C 12,2 C 91 % 1013,4 hPa 0,0 l/m 0 min 0 min 17 W/m 2,3 km/h (1 Bft) 97,87 %
13.06.2018 06:12 12,8 C 12,8 C 12,2 C 91 % 1013,4 hPa 0,0 l/m 0 min 0 min 18 W/m 6,8 km/h (2 Bft) 100,00 %
13.06.2018 06:14 12,8 C 12,8 C 12,2 C 91 % 1013,3 hPa 0,0 l/m 0 min 0 min 20 W/m 9,0 km/h (2 Bft) 100,00 %
13.06.2018 06:16 12,8 C 12,8 C 12,2 C 91 % 1013,3 hPa 0,0 l/m 0 min 0 min 22 W/m 4,5 km/h (1 Bft) 100,00 %
13.06.2018 06:18 12,8 C 12,8 C 12,2 C 91 % 1013,3 hPa 0,0 l/m 0 min 0 min 24 W/m 4,5 km/h (1 Bft) 97,87 %
13.06.2018 06:20 12,8 C 12,8 C 12,2 C 91 % 1013,4 hPa 0,0 l/m 0 min 0 min 27 W/m 4,5 km/h (1 Bft) 100,00 %
13.06.2018 06:22 12,8 C 12,8 C 12,2 C 91 % 1013,3 hPa 0,0 l/m 0 min 0 min 30 W/m 4,5 km/h (1 Bft) 100,00 %
13.06.2018 06:24 12,8 C 12,8 C 12,2 C 91 % 1013,3 hPa 0,0 l/m 0 min 0 min 32 W/m 4,5 km/h (1 Bft) 100,00 %
13.06.2018 06:26 12,8 C 12,8 C 12,8 C 91 % 1013,3 hPa 0,0 l/m 0 min 0 min 33 W/m 4,5 km/h (1 Bft) 100,00 %
13.06.2018 06:28 12,8 C 12,8 C 12,2 C 91 % 1013,4 hPa 0,0 l/m 0 min 0 min 33 W/m 6,8 km/h (2 Bft) 97,83 %
13.06.2018 06:30 12,8 C 12,8 C 12,2 C 91 % 1013,4 hPa 0,0 l/m 0 min 0 min 32 W/m 4,5 km/h (1 Bft) 97,87 %
13.06.2018 06:32 12,8 C 12,8 C 12,2 C 91 % 1013,3 hPa 0,0 l/m 0 min 0 min 33 W/m 6,8 km/h (2 Bft) 100,00 %
13.06.2018 06:34 12,9 C 12,8 C 12,2 C 91 % 1013,4 hPa 0,0 l/m 0 min 0 min 34 W/m 4,5 km/h (1 Bft) 97,87 %
13.06.2018 06:36 12,9 C 12,8 C 12,2 C 91 % 1013,3 hPa 0,0 l/m 0 min 0 min 36 W/m 11,3 km/h (2 Bft) 95,74 %
13.06.2018 06:38 12,9 C 12,8 C 12,2 C 91 % 1013,3 hPa 0,0 l/m 0 min 0 min 39 W/m 4,5 km/h (1 Bft) 97,87 %
13.06.2018 06:40 12,9 C 12,8 C 12,2 C 91 % 1013,2 hPa 0,0 l/m 0 min 0 min 43 W/m 6,8 km/h (2 Bft) 100,00 %
13.06.2018 06:42 12,9 C 12,8 C 12,8 C 91 % 1013,3 hPa 0,0 l/m 0 min 0 min 45 W/m 9,0 km/h (2 Bft) 100,00 %
13.06.2018 06:44 12,9 C 12,8 C 12,2 C 91 % 1013,3 hPa 0,0 l/m 0 min 0 min 48 W/m 9,0 km/h (2 Bft) 97,87 %
13.06.2018 06:46 13,0 C 12,8 C 12,2 C 91 % 1013,4 hPa 0,0 l/m 0 min 0 min 51 W/m 6,8 km/h (2 Bft) 97,87 %
13.06.2018 06:48 13,0 C 12,8 C 12,2 C 91 % 1013,4 hPa 0,0 l/m 0 min 0 min 51 W/m 6,8 km/h (2 Bft) 97,87 %
13.06.2018 06:50 13,0 C 12,8 C 12,2 C 91 % 1013,3 hPa 0,0 l/m 0 min 0 min 51 W/m 4,5 km/h (1 Bft) 97,87 %
13.06.2018 06:52 13,0 C 12,8 C 12,2 C 91 % 1013,4 hPa 0,0 l/m 0 min 0 min 53 W/m 6,8 km/h (2 Bft) 95,65 %
13.06.2018 06:54 13,1 C 12,8 C 12,2 C 91 % 1013,3 hPa 0,0 l/m 0 min 0 min 54 W/m 11,3 km/h (2 Bft) 97,87 %
13.06.2018 06:56 13,1 C 12,8 C 12,2 C 91 % 1013,4 hPa 0,0 l/m 0 min 0 min 54 W/m 4,5 km/h (1 Bft) 97,87 %
13.06.2018 06:58 13,1 C 12,8 C 12,2 C 91 % 1013,3 hPa 0,0 l/m 0 min 0 min 56 W/m 2,3 km/h (1 Bft) 95,74 %
13.06.2018 07:00 13,1 C 12,8 C 12,8 C 91 % 1013,3 hPa 0,0 l/m 0 min 0 min 60 W/m 9,0 km/h (2 Bft) 95,74 %
13.06.2018 07:02 13,1 C 12,8 C 12,8 C 91 % 1013,4 hPa 0,0 l/m 0 min 0 min 62 W/m 9,0 km/h (2 Bft) 97,87 %
13.06.2018 07:04 13,1 C 13,3 C 12,8 C 91 % 1013,4 hPa 0,0 l/m 0 min 0 min 64 W/m 9,0 km/h (2 Bft) 93,62 %
13.06.2018 07:06 13,1 C 13,3 C 12,8 C 91 % 1013,4 hPa 0,0 l/m 0 min 0 min 67 W/m 13,5 km/h (3 Bft) 95,74 %
13.06.2018 07:08 13,1 C 13,3 C 12,8 C 91 % 1013,4 hPa 0,0 l/m 0 min 0 min 68 W/m 11,3 km/h (2 Bft) 93,62 %
13.06.2018 07:10 13,1 C 13,3 C 12,8 C 91 % 1013,4 hPa 0,0 l/m 0 min 0 min 68 W/m 9,0 km/h (2 Bft) 91,49 %
13.06.2018 07:12 13,1 C 13,3 C 12,8 C 91 % 1013,5 hPa 0,0 l/m 0 min 0 min 67 W/m 9,0 km/h (2 Bft) 89,36 %
13.06.2018 07:14 13,1 C 13,3 C 12,8 C 91 % 1013,4 hPa 0,0 l/m 0 min 0 min 69 W/m 6,8 km/h (2 Bft) 91,30 %
13.06.2018 07:16 13,2 C 13,3 C 12,8 C 91 % 1013,5 hPa 0,0 l/m 0 min 0 min 69 W/m 4,5 km/h (1 Bft) 93,62 %
13.06.2018 07:18 13,2 C 13,3 C 12,8 C 91 % 1013,5 hPa 0,0 l/m 0 min 0 min 69 W/m 9,0 km/h (2 Bft) 91,49 %
13.06.2018 07:20 13,2 C 13,3 C 12,8 C 91 % 1013,5 hPa 0,0 l/m 0 min 0 min 72 W/m 9,0 km/h (2 Bft) 93,62 %
13.06.2018 07:22 13,2 C 13,3 C 12,8 C 91 % 1013,5 hPa 0,0 l/m 0 min 0 min 76 W/m 15,8 km/h (3 Bft) 93,62 %
13.06.2018 07:24 13,2 C 13,3 C 12,8 C 91 % 1013,5 hPa 0,0 l/m 0 min 0 min 77 W/m 11,3 km/h (2 Bft) 93,62 %
13.06.2018 07:26 13,2 C 13,3 C 12,8 C 91 % 1013,5 hPa 0,0 l/m 0 min 0 min 79 W/m 4,5 km/h (1 Bft) 93,48 %
13.06.2018 07:28 13,2 C 13,3 C 12,8 C 91 % 1013,5 hPa 0,0 l/m 0 min 0 min 80 W/m 6,8 km/h (2 Bft) 93,62 %
13.06.2018 07:30 13,2 C 13,3 C 12,8 C 91 % 1013,5 hPa 0,0 l/m 0 min 0 min 85 W/m 6,8 km/h (2 Bft) 91,49 %
13.06.2018 07:32 13,2 C 13,3 C 12,8 C 91 % 1013,5 hPa 0,0 l/m 0 min 0 min 94 W/m 6,8 km/h (2 Bft) 95,74 %
13.06.2018 07:34 13,2 C 13,3 C 12,8 C 90 % 1013,4 hPa 0,0 l/m 0 min 0 min 100 W/m 13,5 km/h (3 Bft) 95,74 %
13.06.2018 07:36 13,3 C 13,9 C 12,8 C 90 % 1013,3 hPa 0,0 l/m 0 min 0 min 105 W/m 9,0 km/h (2 Bft) 95,74 %
13.06.2018 07:38 13,3 C 13,9 C 12,8 C 90 % 1013,4 hPa 0,0 l/m 0 min 0 min 111 W/m 6,8 km/h (2 Bft) 95,65 %
13.06.2018 07:40 13,3 C 13,9 C 12,8 C 90 % 1013,5 hPa 0,0 l/m 0 min 0 min 122 W/m 11,3 km/h (2 Bft) 95,74 %
13.06.2018 07:42 13,3 C 13,9 C 12,8 C 90 % 1013,5 hPa 0,0 l/m 0 min 0 min 140 W/m 9,0 km/h (2 Bft) 95,74 %
13.06.2018 07:44 13,3 C 13,9 C 12,8 C 90 % 1013,5 hPa 0,0 l/m 0 min 0 min 145 W/m 13,5 km/h (3 Bft) 97,87 %
13.06.2018 07:46 13,3 C 13,9 C 12,8 C 90 % 1013,6 hPa 0,0 l/m 0 min 0 min 140 W/m 18,0 km/h (3 Bft) 97,87 %
13.06.2018 07:48 13,3 C 13,9 C 12,8 C 90 % 1013,4 hPa 0,0 l/m 0 min 0 min 138 W/m 15,8 km/h (3 Bft) 97,87 %
13.06.2018 07:50 13,4 C 13,9 C 12,8 C 89 % 1013,5 hPa 0,0 l/m 0 min 0 min 133 W/m 9,0 km/h (2 Bft) 95,65 %
13.06.2018 07:52 13,4 C 13,9 C 12,8 C 89 % 1013,5 hPa 0,0 l/m 0 min 0 min 129 W/m 4,5 km/h (1 Bft) 97,87 %
13.06.2018 07:54 13,4 C 13,9 C 12,8 C 89 % 1013,5 hPa 0,0 l/m 0 min 0 min 134 W/m 13,5 km/h (3 Bft) 97,87 %
13.06.2018 07:56 13,5 C 13,9 C 12,8 C 89 % 1013,5 hPa 0,0 l/m 0 min 0 min 143 W/m 9,0 km/h (2 Bft) 97,87 %
13.06.2018 07:58 13,5 C 14,4 C 12,8 C 89 % 1013,5 hPa 0,0 l/m 0 min 0 min 158 W/m 11,3 km/h (2 Bft) 97,87 %
13.06.2018 08:00 13,6 C 14,4 C 13,3 C 89 % 1013,5 hPa 0,0 l/m 0 min 0 min 168 W/m 6,8 km/h (2 Bft) 95,65 %
13.06.2018 08:02 13,6 C 14,4 C 13,3 C 89 % 1013,5 hPa 0,0 l/m 0 min 0 min 177 W/m 11,3 km/h (2 Bft) 97,87 %
13.06.2018 08:04 13,6 C 14,4 C 13,3 C 89 % 1013,6 hPa 0,0 l/m 0 min 0 min 181 W/m 13,5 km/h (3 Bft) 97,87 %
13.06.2018 08:06 13,7 C 14,4 C 13,3 C 89 % 1013,6 hPa 0,0 l/m 0 min 0 min 181 W/m 11,3 km/h (2 Bft) 100,00 %
13.06.2018 08:08 13,7 C 14,4 C 13,3 C 88 % 1013,5 hPa 0,0 l/m 0 min 0 min 178 W/m 11,3 km/h (2 Bft) 100,00 %
13.06.2018 08:10 13,7 C 14,4 C 13,3 C 88 % 1013,5 hPa 0,0 l/m 0 min 0 min 173 W/m 9,0 km/h (2 Bft) 100,00 %
13.06.2018 08:12 13,8 C 14,4 C 13,3 C 88 % 1013,5 hPa 0,0 l/m 0 min 0 min 169 W/m 9,0 km/h (2 Bft) 97,83 %
13.06.2018 08:14 13,8 C 14,4 C 13,3 C 88 % 1013,6 hPa 0,0 l/m 0 min 0 min 167 W/m 13,5 km/h (3 Bft) 100,00 %
13.06.2018 08:16 13,8 C 14,4 C 13,3 C 88 % 1013,7 hPa 0,0 l/m 0 min 0 min 169 W/m 13,5 km/h (3 Bft) 100,00 %
13.06.2018 08:18 13,9 C 14,4 C 13,3 C 87 % 1013,6 hPa 0,0 l/m 0 min 0 min 171 W/m 9,0 km/h (2 Bft) 100,00 %
13.06.2018 08:20 13,9 C 14,4 C 13,3 C 87 % 1013,7 hPa 0,0 l/m 0 min 0 min 177 W/m 11,3 km/h (2 Bft) 100,00 %
13.06.2018 08:22 13,9 C 15,0 C 13,3 C 87 % 1013,7 hPa 0,0 l/m 0 min 0 min 181 W/m 9,0 km/h (2 Bft) 97,87 %
13.06.2018 08:24 14,0 C 15,0 C 13,3 C 87 % 1013,7 hPa 0,0 l/m 0 min 0 min 185 W/m 11,3 km/h (2 Bft) 100,00 %
13.06.2018 08:26 14,1 C 15,0 C 13,3 C 86 % 1013,8 hPa 0,0 l/m 0 min 0 min 190 W/m 4,5 km/h (1 Bft) 100,00 %
13.06.2018 08:28 14,2 C 15,0 C 13,3 C 86 % 1013,8 hPa 0,0 l/m 0 min 0 min 193 W/m 13,5 km/h (3 Bft) 100,00 %
13.06.2018 08:30 14,2 C 15,0 C 13,3 C 86 % 1013,8 hPa 0,0 l/m 0 min 0 min 194 W/m 13,5 km/h (3 Bft) 100,00 %
13.06.2018 08:32 14,2 C 15,0 C 13,3 C 86 % 1013,7 hPa 0,0 l/m 0 min 0 min 198 W/m 11,3 km/h (2 Bft) 100,00 %
13.06.2018 08:34 14,2 C 15,0 C 13,3 C 86 % 1013,7 hPa 0,0 l/m 0 min 0 min 193 W/m 13,5 km/h (3 Bft) 100,00 %
13.06.2018 08:36 14,2 C 15,0 C 13,3 C 86 % 1013,8 hPa 0,0 l/m 0 min 0 min 192 W/m 13,5 km/h (3 Bft) 100,00 %
13.06.2018 08:38 14,2 C 15,0 C 13,3 C 86 % 1013,8 hPa 0,0 l/m 0 min 0 min 187 W/m 15,8 km/h (3 Bft) 100,00 %
13.06.2018 08:40 14,2 C 15,0 C 13,3 C 86 % 1013,7 hPa 0,0 l/m 0 min 0 min 186 W/m 11,3 km/h (2 Bft) 100,00 %
13.06.2018 08:42 14,2 C 15,0 C 13,3 C 86 % 1013,9 hPa 0,0 l/m 0 min 0 min 194 W/m 13,5 km/h (3 Bft) 100,00 %
13.06.2018 08:44 14,2 C 15,0 C 13,3 C 86 % 1013,8 hPa 0,0 l/m 0 min 0 min 199 W/m 18,0 km/h (3 Bft) 100,00 %
13.06.2018 08:46 14,3 C 15,0 C 13,3 C 85 % 1014,0 hPa 0,0 l/m 0 min 0 min 201 W/m 11,3 km/h (2 Bft) 100,00 %
13.06.2018 08:48 14,3 C 15,0 C 13,9 C 85 % 1014,0 hPa 0,0 l/m 0 min 0 min 204 W/m 9,0 km/h (2 Bft) 97,83 %
13.06.2018 08:50 14,3 C 15,0 C 13,9 C 85 % 1014,0 hPa 0,0 l/m 0 min 0 min 210 W/m 13,5 km/h (3 Bft) 100,00 %
13.06.2018 08:52 14,4 C 15,6 C 13,9 C 85 % 1014,0 hPa 0,0 l/m 0 min 0 min 212 W/m 9,0 km/h (2 Bft) 100,00 %
13.06.2018 08:54 14,4 C 15,6 C 13,9 C 85 % 1014,0 hPa 0,0 l/m 0 min 0 min 216 W/m 9,0 km/h (2 Bft) 100,00 %
13.06.2018 08:56 14,4 C 15,6 C 13,9 C 85 % 1013,9 hPa 0,0 l/m 0 min 0 min 214 W/m 4,5 km/h (1 Bft) 100,00 %
13.06.2018 08:58 14,5 C 15,6 C 13,9 C 85 % 1014,0 hPa 0,0 l/m 0 min 0 min 208 W/m 13,5 km/h (3 Bft) 100,00 %
13.06.2018 09:00 14,6 C 15,6 C 13,9 C 84 % 1014,0 hPa 0,0 l/m 0 min 0 min 214 W/m 13,5 km/h (3 Bft) 97,83 %
13.06.2018 09:02 14,6 C 15,6 C 13,9 C 84 % 1014,1 hPa 0,0 l/m 0 min 0 min 219 W/m 15,8 km/h (3 Bft) 97,87 %
13.06.2018 09:04 14,6 C 15,0 C 13,9 C 83 % 1014,0 hPa 0,0 l/m 0 min 0 min 225 W/m 15,8 km/h (3 Bft) 100,00 %
13.06.2018 09:06 14,6 C 15,6 C 13,9 C 83 % 1014,1 hPa 0,0 l/m 0 min 0 min 231 W/m 11,3 km/h (2 Bft) 100,00 %
13.06.2018 09:08 14,6 C 15,6 C 13,9 C 83 % 1014,1 hPa 0,0 l/m 0 min 0 min 229 W/m 11,3 km/h (2 Bft) 100,00 %
13.06.2018 09:10 14,6 C 15,6 C 13,9 C 83 % 1014,0 hPa 0,0 l/m 0 min 0 min 224 W/m 15,8 km/h (3 Bft) 100,00 %
13.06.2018 09:12 14,6 C 15,6 C 13,9 C 83 % 1014,0 hPa 0,0 l/m 0 min 0 min 220 W/m 18,0 km/h (3 Bft) 100,00 %
13.06.2018 09:14 14,7 C 15,6 C 13,9 C 83 % 1013,9 hPa 0,0 l/m 0 min 0 min 220 W/m 15,8 km/h (3 Bft) 100,00 %
13.06.2018 09:16 14,7 C 15,6 C 13,9 C 83 % 1014,0 hPa 0,0 l/m 0 min 0 min 226 W/m 18,0 km/h (3 Bft) 100,00 %
13.06.2018 09:18 14,7 C 15,6 C 13,9 C 82 % 1014,1 hPa 0,0 l/m 0 min 0 min 218 W/m 13,5 km/h (3 Bft) 100,00 %
13.06.2018 09:20 14,7 C 15,6 C 13,9 C 83 % 1014,1 hPa 0,0 l/m 0 min 0 min 201 W/m 9,0 km/h (2 Bft) 100,00 %
13.06.2018 09:22 14,7 C 15,6 C 13,9 C 83 % 1014,1 hPa 0,0 l/m 0 min 0 min 195 W/m 11,3 km/h (2 Bft) 93,75 %
13.06.2018 09:24 14,7 C 15,6 C 13,9 C 83 % 1014,1 hPa 0,0 l/m 0 min 0 min 202 W/m 13,5 km/h (3 Bft) 97,92 %
13.06.2018 09:26 14,7 C 15,6 C 13,9 C 83 % 1014,2 hPa 0,0 l/m 0 min 0 min 220 W/m 6,8 km/h (2 Bft) 97,83 %
13.06.2018 09:28 14,8 C 15,6 C 13,9 C 83 % 1014,2 hPa 0,0 l/m 0 min 0 min 229 W/m 11,3 km/h (2 Bft) 100,00 %
13.06.2018 09:30 14,8 C 15,6 C 13,9 C 82 % 1014,1 hPa 0,0 l/m 0 min 0 min 226 W/m 18,0 km/h (3 Bft) 97,87 %
13.06.2018 09:32 14,8 C 15,6 C 13,9 C 82 % 1014,2 hPa 0,0 l/m 0 min 0 min 215 W/m 6,8 km/h (2 Bft) 93,62 %
13.06.2018 09:34 14,8 C 15,6 C 13,9 C 82 % 1014,2 hPa 0,0 l/m 0 min 0 min 200 W/m 11,3 km/h (2 Bft) 100,00 %
13.06.2018 09:36 14,8 C 15,6 C 13,9 C 82 % 1014,1 hPa 0,0 l/m 0 min 0 min 199 W/m 11,3 km/h (2 Bft) 97,83 %
13.06.2018 09:38 14,8 C 15,6 C 13,9 C 82 % 1014,0 hPa 0,0 l/m 0 min 0 min 214 W/m 6,8 km/h (2 Bft) 97,87 %
13.06.2018 09:40 14,8 C 15,6 C 13,9 C 82 % 1014,1 hPa 0,0 l/m 0 min 0 min 236 W/m 4,5 km/h (1 Bft) 95,74 %
13.06.2018 09:42 14,9 C 16,1 C 13,9 C 83 % 1014,1 hPa 0,0 l/m 0 min 0 min 269 W/m 6,8 km/h (2 Bft) 95,74 %
13.06.2018 09:44 14,9 C 16,1 C 14,4 C 83 % 1014,1 hPa 0,0 l/m 0 min 0 min 295 W/m 13,5 km/h (3 Bft) 95,74 %
13.06.2018 09:46 15,0 C 16,1 C 14,4 C 83 % 1014,0 hPa 0,0 l/m 2 min 0 min 325 W/m 13,5 km/h (3 Bft) 93,62 %
13.06.2018 09:48 15,0 C 16,7 C 14,4 C 83 % 1014,0 hPa 0,0 l/m 2 min 0 min 338 W/m 20,3 km/h (4 Bft) 95,65 %
13.06.2018 09:50 15,1 C 16,7 C 14,4 C 83 % 1014,2 hPa 0,0 l/m 0 min 0 min 296 W/m 11,3 km/h (2 Bft) 95,74 %
13.06.2018 09:52 15,1 C 16,1 C 14,4 C 83 % 1014,1 hPa 0,0 l/m 0 min 0 min 241 W/m 13,5 km/h (3 Bft) 95,74 %
13.06.2018 09:54 15,1 C 16,1 C 14,4 C 82 % 1014,2 hPa 0,0 l/m 0 min 0 min 190 W/m 13,5 km/h (3 Bft) 93,62 %
13.06.2018 09:56 15,1 C 15,6 C 13,9 C 82 % 1014,2 hPa 0,0 l/m 0 min 0 min 146 W/m 22,5 km/h (4 Bft) 95,74 %
13.06.2018 09:58 15,1 C 15,6 C 13,9 C 82 % 1014,2 hPa 0,0 l/m 0 min 0 min 133 W/m 15,8 km/h (3 Bft) 97,87 %
13.06.2018 10:00 15,1 C 15,6 C 13,9 C 81 % 1014,2 hPa 0,0 l/m 0 min 0 min 143 W/m 11,3 km/h (2 Bft) 95,65 %
13.06.2018 10:02 15,1 C 15,0 C 13,9 C 81 % 1014,3 hPa 0,0 l/m 0 min 0 min 148 W/m 9,0 km/h (2 Bft) 93,62 %
13.06.2018 10:04 15,1 C 15,0 C 13,9 C 81 % 1014,3 hPa 0,0 l/m 0 min 0 min 134 W/m 9,0 km/h (2 Bft) 93,62 %
13.06.2018 10:06 15,1 C 15,0 C 13,9 C 81 % 1014,3 hPa 0,0 l/m 0 min 0 min 137 W/m 13,5 km/h (3 Bft) 97,14 %
13.06.2018 10:08 15,1 C 15,0 C 13,9 C 81 % 1014,3 hPa 0,0 l/m 0 min 0 min 120 W/m 20,3 km/h (4 Bft) 90,74 %
13.06.2018 10:10 15,0 C 14,4 C 13,9 C 81 % 1014,3 hPa 0,0 l/m 0 min 0 min 106 W/m 9,0 km/h (2 Bft) 95,65 %
13.06.2018 10:12 14,9 C 14,4 C 13,9 C 81 % 1014,3 hPa 0,0 l/m 0 min 0 min 92 W/m 6,8 km/h (2 Bft) 95,74 %
13.06.2018 10:14 14,9 C 14,4 C 13,9 C 81 % 1014,3 hPa 0,0 l/m 0 min 0 min 81 W/m 11,3 km/h (2 Bft) 95,74 %
13.06.2018 10:16 14,9 C 14,4 C 13,9 C 81 % 1014,4 hPa 0,0 l/m 0 min 0 min 120 W/m 11,3 km/h (2 Bft) 95,92 %
13.06.2018 10:18 14,8 C 15,0 C 13,9 C 81 % 1014,5 hPa 0,0 l/m 0 min 0 min 176 W/m 6,8 km/h (2 Bft) 97,87 %
13.06.2018 10:20 14,8 C 15,0 C 13,9 C 82 % 1014,4 hPa 0,0 l/m 0 min 0 min 174 W/m 9,0 km/h (2 Bft) 97,87 %
13.06.2018 10:22 14,8 C 15,0 C 13,9 C 82 % 1014,4 hPa 0,0 l/m 0 min 0 min 166 W/m 11,3 km/h (2 Bft) 93,62 %
13.06.2018 10:24 14,8 C 15,0 C 13,9 C 82 % 1014,4 hPa 0,0 l/m 0 min 0 min 171 W/m 11,3 km/h (2 Bft) 91,49 %
13.06.2018 10:26 14,8 C 15,0 C 13,9 C 82 % 1014,5 hPa 0,0 l/m 0 min 0 min 175 W/m 13,5 km/h (3 Bft) 95,74 %
13.06.2018 10:28 14,8 C 15,0 C 13,9 C 82 % 1014,4 hPa 0,0 l/m 0 min 0 min 150 W/m 15,8 km/h (3 Bft) 93,62 %
13.06.2018 10:30 14,8 C 14,4 C 13,3 C 82 % 1014,5 hPa 0,0 l/m 0 min 0 min 136 W/m 13,5 km/h (3 Bft) 95,74 %
13.06.2018 10:32 14,8 C 14,4 C 13,3 C 82 % 1014,5 hPa 0,0 l/m 0 min 0 min 143 W/m 11,3 km/h (2 Bft) 93,48 %
13.06.2018 10:34 14,7 C 14,4 C 13,3 C 82 % 1014,5 hPa 0,0 l/m 0 min 0 min 152 W/m 13,5 km/h (3 Bft) 97,87 %
13.06.2018 10:36 14,7 C 15,0 C 13,3 C 82 % 1014,6 hPa 0,0 l/m 0 min 0 min 197 W/m 18,0 km/h (3 Bft) 97,87 %
13.06.2018 10:38 14,7 C 15,0 C 13,3 C 83 % 1014,6 hPa 0,0 l/m 0 min 0 min 235 W/m 9,0 km/h (2 Bft) 97,87 %
13.06.2018 10:40 14,7 C 15,0 C 13,9 C 83 % 1014,7 hPa 0,0 l/m 0 min 0 min 259 W/m 9,0 km/h (2 Bft) 97,87 %
13.06.2018 10:42 14,7 C 15,6 C 13,9 C 83 % 1014,7 hPa 0,0 l/m 0 min 0 min 277 W/m 13,5 km/h (3 Bft) 97,87 %
13.06.2018 10:44 14,7 C 15,6 C 13,9 C 83 % 1014,6 hPa 0,0 l/m 0 min 0 min 299 W/m 11,3 km/h (2 Bft) 93,48 %
13.06.2018 10:46 14,8 C 16,1 C 13,9 C 83 % 1014,7 hPa 0,0 l/m 0 min 0 min 321 W/m 13,5 km/h (3 Bft) 97,87 %
13.06.2018 10:48 14,8 C 16,1 C 13,9 C 82 % 1014,6 hPa 0,0 l/m 0 min 0 min 334 W/m 18,0 km/h (3 Bft) 97,87 %
13.06.2018 10:50 14,8 C 16,1 C 13,9 C 82 % 1014,6 hPa 0,0 l/m 0 min 0 min 333 W/m 18,0 km/h (3 Bft) 97,87 %
13.06.2018 10:52 14,8 C 16,1 C 14,4 C 82 % 1014,6 hPa 0,0 l/m 0 min 0 min 332 W/m 15,8 km/h (3 Bft) 97,87 %
13.06.2018 10:54 14,9 C 16,1 C 14,4 C 82 % 1014,6 hPa 0,0 l/m 0 min 0 min 315 W/m 13,5 km/h (3 Bft) 97,87 %
13.06.2018 10:56 14,9 C 16,7 C 14,4 C 81 % 1014,6 hPa 0,0 l/m 0 min 0 min 291 W/m 13,5 km/h (3 Bft) 97,83 %
13.06.2018 10:58 15,0 C 16,1 C 14,4 C 81 % 1014,6 hPa 0,0 l/m 0 min 0 min 286 W/m 15,8 km/h (3 Bft) 95,74 %
13.06.2018 11:00 15,0 C 16,1 C 14,4 C 80 % 1014,6 hPa 0,0 l/m 0 min 0 min 268 W/m 13,5 km/h (3 Bft) 97,87 %
13.06.2018 11:02 15,1 C 16,1 C 14,4 C 80 % 1014,6 hPa 0,0 l/m 0 min 0 min 249 W/m 6,8 km/h (2 Bft) 95,74 %
13.06.2018 11:04 15,1 C 16,1 C 14,4 C 80 % 1014,5 hPa 0,0 l/m 0 min 0 min 218 W/m 15,8 km/h (3 Bft) 97,87 %
13.06.2018 11:06 15,1 C 15,6 C 14,4 C 80 % 1014,6 hPa 0,0 l/m 0 min 0 min 188 W/m 9,0 km/h (2 Bft) 97,87 %
13.06.2018 11:08 15,1 C 15,6 C 13,9 C 79 % 1014,6 hPa 0,0 l/m 0 min 0 min 164 W/m 11,3 km/h (2 Bft) 97,83 %
13.06.2018 11:10 15,1 C 15,6 C 14,4 C 79 % 1014,6 hPa 0,0 l/m 0 min 0 min 146 W/m 9,0 km/h (2 Bft) 97,87 %
13.06.2018 11:12 15,1 C 15,6 C 13,9 C 79 % 1014,7 hPa 0,0 l/m 0 min 0 min 136 W/m 9,0 km/h (2 Bft) 97,87 %
13.06.2018 11:14 15,1 C 15,0 C 13,9 C 79 % 1014,6 hPa 0,0 l/m 0 min 0 min 134 W/m 11,3 km/h (2 Bft) 97,87 %
13.06.2018 11:16 15,1 C 15,0 C 13,9 C 79 % 1014,6 hPa 0,0 l/m 0 min 0 min 138 W/m 9,0 km/h (2 Bft) 97,87 %
13.06.2018 11:18 15,1 C 15,0 C 13,9 C 79 % 1014,7 hPa 0,0 l/m 0 min 0 min 139 W/m 13,5 km/h (3 Bft) 97,87 %
13.06.2018 11:20 15,1 C 15,0 C 13,9 C 79 % 1014,6 hPa 0,0 l/m 0 min 0 min 133 W/m 11,3 km/h (2 Bft) 100,00 %
13.06.2018 11:22 15,1 C 15,0 C 13,9 C 79 % 1014,7 hPa 0,0 l/m 0 min 0 min 127 W/m 13,5 km/h (3 Bft) 100,00 %
13.06.2018 11:24 15,0 C 15,0 C 13,9 C 79 % 1014,6 hPa 0,0 l/m 0 min 0 min 123 W/m 6,8 km/h (2 Bft) 100,00 %
13.06.2018 11:26 15,0 C 15,0 C 13,9 C 79 % 1014,6 hPa 0,0 l/m 0 min 0 min 119 W/m 13,5 km/h (3 Bft) 100,00 %
13.06.2018 11:28 15,0 C 15,0 C 13,9 C 79 % 1014,6 hPa 0,0 l/m 0 min 0 min 113 W/m 9,0 km/h (2 Bft) 97,87 %
13.06.2018 11:30 14,9 C 15,0 C 13,9 C 79 % 1014,6 hPa 0,0 l/m 0 min 0 min 109 W/m 15,8 km/h (3 Bft) 100,00 %
13.06.2018 11:32 14,9 C 15,0 C 13,9 C 79 % 1014,6 hPa 0,0 l/m 0 min 0 min 104 W/m 9,0 km/h (2 Bft) 100,00 %
13.06.2018 11:34 14,9 C 14,4 C 13,9 C 80 % 1014,6 hPa 0,0 l/m 0 min 0 min 109 W/m 13,5 km/h (3 Bft) 100,00 %
13.06.2018 11:36 14,9 C 14,4 C 13,9 C 80 % 1014,6 hPa 0,0 l/m 0 min 0 min 127 W/m 11,3 km/h (2 Bft) 97,87 %
13.06.2018 11:38 14,9 C 14,4 C 13,9 C 80 % 1014,6 hPa 0,0 l/m 0 min 0 min 155 W/m 15,8 km/h (3 Bft) 100,00 %
13.06.2018 11:40 14,8 C 14,4 C 13,9 C 81 % 1014,7 hPa 0,0 l/m 0 min 0 min 185 W/m 11,3 km/h (2 Bft) 100,00 %
13.06.2018 11:42 14,8 C 15,0 C 13,9 C 81 % 1014,6 hPa 0,0 l/m 0 min 0 min 205 W/m 6,8 km/h (2 Bft) 97,87 %
13.06.2018 11:44 14,8 C 15,0 C 13,9 C 81 % 1014,6 hPa 0,0 l/m 0 min 0 min 227 W/m 9,0 km/h (2 Bft) 100,00 %
13.06.2018 11:46 14,8 C 15,6 C 13,9 C 81 % 1014,6 hPa 0,0 l/m 0 min 0 min 261 W/m 9,0 km/h (2 Bft) 97,87 %
13.06.2018 11:48 14,8 C 15,6 C 13,9 C 82 % 1014,5 hPa 0,0 l/m 0 min 0 min 302 W/m 4,5 km/h (1 Bft) 100,00 %
13.06.2018 11:50 14,8 C 16,1 C 13,9 C 82 % 1014,5 hPa 0,0 l/m 0 min 0 min 339 W/m 9,0 km/h (2 Bft) 100,00 %
13.06.2018 11:52 14,9 C 16,7 C 14,4 C 81 % 1014,5 hPa 0,0 l/m 0 min 0 min 368 W/m 6,8 km/h (2 Bft) 100,00 %
13.06.2018 11:54 14,9 C 16,7 C 14,4 C 81 % 1014,5 hPa 0,0 l/m 0 min 0 min 387 W/m 11,3 km/h (2 Bft) 100,00 %
13.06.2018 11:56 14,9 C 17,2 C 14,4 C 81 % 1014,6 hPa 0,0 l/m 0 min 0 min 395 W/m 11,3 km/h (2 Bft) 97,87 %
13.06.2018 11:58 15,0 C 17,2 C 14,4 C 81 % 1014,6 hPa 0,0 l/m 2 min 0 min 411 W/m 13,5 km/h (3 Bft) 100,00 %
13.06.2018 12:00 15,1 C 17,2 C 15,0 C 80 % 1014,6 hPa 0,0 l/m 2 min 0 min 444 W/m 9,0 km/h (2 Bft) 100,00 %
13.06.2018 12:02 15,2 C 17,8 C 15,0 C 80 % 1014,6 hPa 0,0 l/m 2 min 0 min 478 W/m 13,5 km/h (3 Bft) 100,00 %
13.06.2018 12:04 15,3 C 17,8 C 15,0 C 79 % 1014,6 hPa 0,0 l/m 2 min 0 min 488 W/m 15,8 km/h (3 Bft) 100,00 %
13.06.2018 12:07 15,4 C 18,3 C 15,0 C 79 % 1014,5 hPa 0,0 l/m 3 min 0 min 457 W/m 18,0 km/h (3 Bft) 100,00 %
13.06.2018 12:08 15,4 C 18,3 C 15,0 C 78 % 1014,5 hPa 0,0 l/m 1 min 0 min 464 W/m 18,0 km/h (3 Bft) 100,00 %
13.06.2018 12:10 15,6 C 18,3 C 15,0 C 78 % 1014,6 hPa 0,0 l/m 2 min 0 min 446 W/m 13,5 km/h (3 Bft) 100,00 %
13.06.2018 12:12 15,7 C 18,3 C 15,0 C 77 % 1014,6 hPa 0,0 l/m 2 min 0 min 425 W/m 15,8 km/h (3 Bft) 95,74 %
13.06.2018 12:14 15,7 C 17,8 C 15,0 C 77 % 1014,5 hPa 0,0 l/m 0 min 0 min 404 W/m 15,8 km/h (3 Bft) 97,87 %
13.06.2018 12:16 15,8 C 17,8 C 15,0 C 76 % 1014,6 hPa 0,0 l/m 0 min 0 min 380 W/m 15,8 km/h (3 Bft) 97,87 %
13.06.2018 12:18 15,9 C 17,8 C 15,0 C 75 % 1014,6 hPa 0,0 l/m 0 min 0 min 357 W/m 15,8 km/h (3 Bft) 97,83 %
13.06.2018 12:20 15,9 C 17,2 C 15,0 C 74 % 1014,6 hPa 0,0 l/m 0 min 0 min 338 W/m 9,0 km/h (2 Bft) 97,87 %
13.06.2018 12:22 16,0 C 17,2 C 15,0 C 75 % 1014,7 hPa 0,0 l/m 0 min 0 min 333 W/m 13,5 km/h (3 Bft) 95,74 %
13.06.2018 12:24 16,0 C 17,2 C 15,0 C 75 % 1014,7 hPa 0,0 l/m 0 min 0 min 335 W/m 13,5 km/h (3 Bft) 95,74 %
13.06.2018 12:26 16,1 C 17,2 C 15,0 C 75 % 1014,7 hPa 0,0 l/m 0 min 0 min 334 W/m 13,5 km/h (3 Bft) 97,87 %
13.06.2018 12:28 16,1 C 17,2 C 15,0 C 75 % 1014,7 hPa 0,0 l/m 0 min 0 min 322 W/m 18,0 km/h (3 Bft) 95,74 %
13.06.2018 12:30 16,1 C 16,7 C 15,0 C 74 % 1014,6 hPa 0,0 l/m 0 min 0 min 300 W/m 15,8 km/h (3 Bft) 97,83 %
13.06.2018 12:32 16,1 C 16,7 C 15,0 C 74 % 1014,7 hPa 0,0 l/m 0 min 0 min 309 W/m 13,5 km/h (3 Bft) 97,87 %
13.06.2018 12:34 16,1 C 16,7 C 15,0 C 74 % 1014,7 hPa 0,0 l/m 0 min 0 min 311 W/m 13,5 km/h (3 Bft) 97,87 %
13.06.2018 12:36 16,1 C 16,7 C 15,0 C 73 % 1014,6 hPa 0,0 l/m 0 min 0 min 324 W/m 20,3 km/h (4 Bft) 93,75 %
13.06.2018 12:38 16,1 C 16,7 C 15,0 C 73 % 1014,6 hPa 0,0 l/m 0 min 0 min 338 W/m 15,8 km/h (3 Bft) 95,74 %
13.06.2018 12:40 16,1 C 16,7 C 15,0 C 73 % 1014,6 hPa 0,0 l/m 0 min 0 min 349 W/m 20,3 km/h (4 Bft) 93,62 %
13.06.2018 12:42 16,1 C 17,2 C 15,0 C 73 % 1014,6 hPa 0,0 l/m 0 min 0 min 377 W/m 20,3 km/h (4 Bft) 95,65 %
13.06.2018 12:44 16,1 C 17,2 C 15,0 C 73 % 1014,7 hPa 0,0 l/m 0 min 0 min 413 W/m 15,8 km/h (3 Bft) 95,74 %
13.06.2018 12:46 16,2 C 17,2 C 15,0 C 72 % 1014,7 hPa 0,0 l/m 2 min 0 min 442 W/m 20,3 km/h (4 Bft) 95,74 %
13.06.2018 12:48 16,2 C 17,8 C 15,6 C 73 % 1014,7 hPa 0,0 l/m 2 min 0 min 467 W/m 11,3 km/h (2 Bft) 97,87 %
13.06.2018 12:50 16,3 C 18,3 C 15,6 C 73 % 1014,7 hPa 0,0 l/m 2 min 0 min 478 W/m 15,8 km/h (3 Bft) 97,87 %
13.06.2018 12:52 16,3 C 18,3 C 15,6 C 72 % 1014,7 hPa 0,0 l/m 2 min 0 min 489 W/m 13,5 km/h (3 Bft) 97,87 %
13.06.2018 12:54 16,4 C 18,3 C 15,6 C 72 % 1014,6 hPa 0,0 l/m 2 min 0 min 510 W/m 13,5 km/h (3 Bft) 97,22 %
13.06.2018 12:56 16,4 C 18,9 C 15,6 C 71 % 1014,7 hPa 0,0 l/m 2 min 0 min 530 W/m 24,8 km/h (4 Bft) 95,65 %
13.06.2018 12:58 16,5 C 18,9 C 15,6 C 72 % 1014,7 hPa 0,0 l/m 2 min 0 min 504 W/m 11,3 km/h (2 Bft) 95,74 %
13.06.2018 13:00 16,6 C 18,9 C 15,6 C 72 % 1014,7 hPa 0,0 l/m 2 min 0 min 455 W/m 18,0 km/h (3 Bft) 97,87 %
13.06.2018 13:02 16,6 C 18,3 C 15,6 C 71 % 1014,7 hPa 0,0 l/m 2 min 0 min 432 W/m 13,5 km/h (3 Bft) 97,87 %
13.06.2018 13:04 16,7 C 18,3 C 15,6 C 71 % 1014,7 hPa 0,0 l/m 0 min 0 min 416 W/m 15,8 km/h (3 Bft) 91,49 %
13.06.2018 13:06 16,7 C 18,3 C 15,6 C 71 % 1014,6 hPa 0,0 l/m 0 min 0 min 422 W/m 13,5 km/h (3 Bft) 97,92 %
13.06.2018 13:08 16,7 C 18,3 C 15,6 C 71 % 1014,7 hPa 0,0 l/m 2 min 0 min 426 W/m 22,5 km/h (4 Bft) 97,83 %
13.06.2018 13:10 16,7 C 17,8 C 15,6 C 70 % 1014,8 hPa 0,0 l/m 0 min 0 min 401 W/m 20,3 km/h (4 Bft) 97,87 %
13.06.2018 13:12 16,7 C 17,8 C 15,6 C 70 % 1014,8 hPa 0,0 l/m 0 min 0 min 358 W/m 20,3 km/h (4 Bft) 97,87 %
13.06.2018 13:14 16,7 C 17,2 C 15,6 C 70 % 1014,8 hPa 0,0 l/m 0 min 0 min 329 W/m 20,3 km/h (4 Bft) 97,87 %
13.06.2018 13:16 16,7 C 17,2 C 15,0 C 70 % 1014,8 hPa 0,0 l/m 0 min 0 min 312 W/m 15,8 km/h (3 Bft) 95,74 %
13.06.2018 13:18 16,7 C 17,2 C 15,0 C 70 % 1014,8 hPa 0,0 l/m 0 min 0 min 308 W/m 18,0 km/h (3 Bft) 95,74 %
13.06.2018 13:20 16,7 C 17,2 C 15,0 C 70 % 1014,9 hPa 0,0 l/m 0 min 0 min 312 W/m 18,0 km/h (3 Bft) 97,83 %
13.06.2018 13:22 16,6 C 17,2 C 15,0 C 70 % 1014,8 hPa 0,0 l/m 0 min 0 min 319 W/m 18,0 km/h (3 Bft) 98,28 %
13.06.2018 13:24 16,6 C 17,2 C 15,0 C 71 % 1014,8 hPa 0,0 l/m 0 min 0 min 339 W/m 18,0 km/h (3 Bft) 97,14 %
13.06.2018 13:26 16,6 C 17,2 C 15,6 C 71 % 1014,9 hPa 0,0 l/m 0 min 0 min 369 W/m 18,0 km/h (3 Bft) 97,87 %
13.06.2018 13:28 16,6 C 17,2 C 15,6 C 71 % 1014,8 hPa 0,0 l/m 0 min 0 min 389 W/m 11,3 km/h (2 Bft) 95,74 %
13.06.2018 13:30 16,6 C 17,8 C 15,6 C 71 % 1014,8 hPa 0,0 l/m 0 min 0 min 406 W/m 13,5 km/h (3 Bft) 95,74 %
13.06.2018 13:32 16,6 C 17,8 C 15,6 C 71 % 1014,9 hPa 0,0 l/m 0 min 0 min 419 W/m 15,8 km/h (3 Bft) 93,48 %
13.06.2018 13:34 16,6 C 17,8 C 15,6 C 71 % 1014,8 hPa 0,0 l/m 2 min 0 min 437 W/m 20,3 km/h (4 Bft) 95,74 %
13.06.2018 13:36 16,6 C 17,8 C 15,6 C 70 % 1014,8 hPa 0,0 l/m 2 min 0 min 463 W/m 22,5 km/h (4 Bft) 95,74 %
13.06.2018 13:38 16,6 C 17,8 C 15,6 C 69 % 1014,8 hPa 0,0 l/m 2 min 0 min 438 W/m 15,8 km/h (3 Bft) 95,74 %
13.06.2018 13:40 16,6 C 17,8 C 15,6 C 70 % 1014,8 hPa 0,0 l/m 0 min 0 min 405 W/m 9,0 km/h (2 Bft) 95,74 %
13.06.2018 13:42 16,6 C 17,8 C 15,6 C 70 % 1014,8 hPa 0,0 l/m 0 min 0 min 387 W/m 15,8 km/h (3 Bft) 95,65 %
13.06.2018 13:44 16,6 C 17,8 C 15,6 C 69 % 1014,7 hPa 0,0 l/m 0 min 0 min 383 W/m 13,5 km/h (3 Bft) 95,74 %
13.06.2018 13:46 16,7 C 18,3 C 15,6 C 70 % 1014,8 hPa 0,0 l/m 0 min 0 min 385 W/m 11,3 km/h (2 Bft) 96,00 %
13.06.2018 13:48 16,7 C 18,3 C 15,6 C 70 % 1014,8 hPa 0,0 l/m 0 min 0 min 379 W/m 11,3 km/h (2 Bft) 95,74 %
13.06.2018 13:50 16,7 C 18,3 C 15,6 C 69 % 1014,9 hPa 0,0 l/m 0 min 0 min 381 W/m 20,3 km/h (4 Bft) 97,87 %
13.06.2018 13:52 16,7 C 17,8 C 15,6 C 69 % 1014,8 hPa 0,0 l/m 0 min 0 min 381 W/m 18,0 km/h (3 Bft) 95,83 %
13.06.2018 13:54 16,8 C 17,8 C 15,6 C 69 % 1014,8 hPa 0,0 l/m 0 min 0 min 390 W/m 20,3 km/h (4 Bft) 97,83 %
13.06.2018 13:56 16,8 C 18,3 C 15,6 C 70 % 1014,9 hPa 0,0 l/m 0 min 0 min 417 W/m 15,8 km/h (3 Bft) 97,87 %
13.06.2018 13:58 16,8 C 18,3 C 15,6 C 69 % 1014,8 hPa 0,0 l/m 2 min 0 min 451 W/m 24,8 km/h (4 Bft) 95,74 %
13.06.2018 14:00 16,8 C 18,3 C 15,6 C 69 % 1014,7 hPa 0,0 l/m 2 min 0 min 476 W/m 15,8 km/h (3 Bft) 97,87 %
13.06.2018 14:02 16,8 C 18,9 C 16,1 C 69 % 1014,8 hPa 0,0 l/m 2 min 0 min 481 W/m 15,8 km/h (3 Bft) 97,87 %
13.06.2018 14:04 16,9 C 18,9 C 16,1 C 69 % 1014,8 hPa 0,0 l/m 2 min 0 min 528 W/m 20,3 km/h (4 Bft) 97,87 %
13.06.2018 14:06 16,9 C 18,9 C 16,1 C 69 % 1014,7 hPa 0,0 l/m 2 min 0 min 530 W/m 13,5 km/h (3 Bft) 97,83 %
13.06.2018 14:08 17,0 C 18,9 C 16,1 C 69 % 1014,8 hPa 0,0 l/m 2 min 0 min 540 W/m 13,5 km/h (3 Bft) 97,87 %
13.06.2018 14:10 17,1 C 19,4 C 16,1 C 69 % 1014,7 hPa 0,0 l/m 2 min 0 min 533 W/m 15,8 km/h (3 Bft) 97,87 %
13.06.2018 14:12 17,2 C 20,0 C 16,7 C 69 % 1014,7 hPa 0,0 l/m 2 min 0 min 567 W/m 13,5 km/h (3 Bft) 97,87 %
13.06.2018 14:14 17,2 C 20,0 C 16,7 C 69 % 1014,7 hPa 0,0 l/m 2 min 0 min 654 W/m 15,8 km/h (3 Bft) 97,87 %
13.06.2018 14:16 17,3 C 20,0 C 16,7 C 69 % 1014,7 hPa 0,0 l/m 2 min 0 min 680 W/m 9,0 km/h (2 Bft) 97,83 %
13.06.2018 14:18 17,4 C 20,6 C 17,2 C 69 % 1014,6 hPa 0,0 l/m 2 min 0 min 680 W/m 11,3 km/h (2 Bft) 100,00 %
13.06.2018 14:20 17,6 C 20,6 C 17,2 C 69 % 1014,6 hPa 0,0 l/m 2 min 0 min 660 W/m 13,5 km/h (3 Bft) 100,00 %
13.06.2018 14:22 17,7 C 20,6 C 17,2 C 69 % 1014,6 hPa 0,0 l/m 2 min 0 min 702 W/m 20,3 km/h (4 Bft) 97,87 %
13.06.2018 14:24 17,8 C 20,6 C 17,2 C 68 % 1014,6 hPa 0,0 l/m 2 min 0 min 809 W/m 20,3 km/h (4 Bft) 100,00 %
13.06.2018 14:26 17,9 C 20,6 C 17,2 C 66 % 1014,6 hPa 0,0 l/m 2 min 0 min 783 W/m 15,8 km/h (3 Bft) 100,00 %
13.06.2018 14:28 18,0 C 20,6 C 17,2 C 66 % 1014,6 hPa 0,0 l/m 2 min 0 min 650 W/m 20,3 km/h (4 Bft) 100,00 %
13.06.2018 14:30 18,1 C 20,0 C 17,2 C 65 % 1014,6 hPa 0,0 l/m 2 min 0 min 628 W/m 20,3 km/h (4 Bft) 100,00 %
13.06.2018 14:32 18,1 C 20,0 C 17,2 C 66 % 1014,6 hPa 0,0 l/m 2 min 0 min 527 W/m 11,3 km/h (2 Bft) 97,87 %
13.06.2018 14:34 18,2 C 20,0 C 17,2 C 65 % 1014,6 hPa 0,0 l/m 2 min 0 min 457 W/m 11,3 km/h (2 Bft) 100,00 %
13.06.2018 14:36 18,2 C 20,0 C 16,7 C 66 % 1014,7 hPa 0,0 l/m 2 min 0 min 446 W/m 15,8 km/h (3 Bft) 97,87 %
13.06.2018 14:38 18,2 C 19,4 C 16,7 C 66 % 1014,7 hPa 0,0 l/m 2 min 0 min 460 W/m 20,3 km/h (4 Bft) 100,00 %
13.06.2018 14:40 18,2 C 20,0 C 16,7 C 65 % 1014,6 hPa 0,0 l/m 2 min 0 min 515 W/m 15,8 km/h (3 Bft) 97,87 %
13.06.2018 14:42 18,2 C 19,4 C 16,7 C 65 % 1014,7 hPa 0,0 l/m 2 min 0 min 544 W/m 27,0 km/h (4 Bft) 95,65 %
13.06.2018 14:44 18,3 C 20,0 C 16,7 C 65 % 1014,7 hPa 0,0 l/m 2 min 0 min 578 W/m 15,8 km/h (3 Bft) 97,87 %
13.06.2018 14:46 18,3 C 20,0 C 17,2 C 66 % 1014,7 hPa 0,0 l/m 2 min 0 min 576 W/m 13,5 km/h (3 Bft) 97,87 %
13.06.2018 14:48 18,3 C 19,4 C 16,7 C 65 % 1014,7 hPa 0,0 l/m 2 min 0 min 498 W/m 15,8 km/h (3 Bft) 97,87 %
13.06.2018 14:50 18,3 C 19,4 C 17,2 C 66 % 1014,6 hPa 0,0 l/m 0 min 0 min 378 W/m 11,3 km/h (2 Bft) 97,87 %
13.06.2018 14:52 18,3 C 18,9 C 16,7 C 66 % 1014,6 hPa 0,0 l/m 0 min 0 min 274 W/m 15,8 km/h (3 Bft) 97,87 %
13.06.2018 14:54 18,2 C 18,9 C 16,7 C 66 % 1014,7 hPa 0,0 l/m 0 min 0 min 255 W/m 11,3 km/h (2 Bft) 97,83 %
13.06.2018 14:56 18,2 C 18,3 C 16,7 C 67 % 1014,6 hPa 0,0 l/m 0 min 0 min 302 W/m 13,5 km/h (3 Bft) 97,87 %
13.06.2018 14:58 18,2 C 18,3 C 16,7 C 67 % 1014,7 hPa 0,0 l/m 0 min 0 min 343 W/m 15,8 km/h (3 Bft) 97,87 %
13.06.2018 15:00 18,1 C 18,3 C 16,7 C 66 % 1014,7 hPa 0,0 l/m 0 min 0 min 342 W/m 20,3 km/h (4 Bft) 95,74 %
13.06.2018 15:02 18,1 C 18,3 C 16,7 C 66 % 1014,7 hPa 0,0 l/m 0 min 0 min 335 W/m 9,0 km/h (2 Bft) 97,87 %
13.06.2018 15:04 18,1 C 18,9 C 16,7 C 66 % 1014,7 hPa 0,0 l/m 0 min 0 min 322 W/m 11,3 km/h (2 Bft) 97,83 %
13.06.2018 15:06 18,0 C 18,9 C 16,7 C 66 % 1014,6 hPa 0,0 l/m 0 min 0 min 316 W/m 18,0 km/h (3 Bft) 95,74 %
13.06.2018 15:08 18,0 C 18,3 C 16,7 C 65 % 1014,6 hPa 0,0 l/m 0 min 0 min 283 W/m 29,3 km/h (5 Bft) 95,74 %
13.06.2018 15:10 17,9 C 18,3 C 16,1 C 64 % 1014,8 hPa 0,0 l/m 0 min 0 min 298 W/m 22,5 km/h (4 Bft) 97,87 %
13.06.2018 15:12 17,9 C 18,3 C 16,1 C 64 % 1014,7 hPa 0,0 l/m 0 min 0 min 334 W/m 13,5 km/h (3 Bft) 97,87 %
13.06.2018 15:14 17,8 C 18,3 C 16,1 C 65 % 1014,7 hPa 0,0 l/m 0 min 0 min 366 W/m 18,0 km/h (3 Bft) 97,87 %
13.06.2018 15:16 17,8 C 18,3 C 16,1 C 65 % 1014,7 hPa 0,0 l/m 0 min 0 min 362 W/m 11,3 km/h (2 Bft) 95,65 %
13.06.2018 15:18 17,8 C 18,3 C 16,1 C 66 % 1014,6 hPa 0,0 l/m 0 min 0 min 349 W/m 13,5 km/h (3 Bft) 95,74 %
13.06.2018 15:20 17,7 C 18,3 C 16,1 C 65 % 1014,6 hPa 0,0 l/m 0 min 0 min 352 W/m 18,0 km/h (3 Bft) 100,00 %
13.06.2018 15:22 17,7 C 18,3 C 16,1 C 65 % 1014,6 hPa 0,0 l/m 0 min 0 min 364 W/m 13,5 km/h (3 Bft) 100,00 %
13.06.2018 15:24 17,7 C 18,9 C 16,7 C 65 % 1014,6 hPa 0,0 l/m 0 min 0 min 386 W/m 13,5 km/h (3 Bft) 95,74 %
13.06.2018 15:26 17,7 C 18,9 C 16,7 C 67 % 1014,6 hPa 0,0 l/m 2 min 0 min 462 W/m 9,0 km/h (2 Bft) 97,87 %
13.06.2018 15:28 17,7 C 19,4 C 16,7 C 67 % 1014,5 hPa 0,0 l/m 2 min 0 min 464 W/m 13,5 km/h (3 Bft) 97,83 %
13.06.2018 15:30 17,7 C 19,4 C 16,7 C 67 % 1014,5 hPa 0,0 l/m 2 min 0 min 472 W/m 18,0 km/h (3 Bft) 100,00 %
13.06.2018 15:32 17,8 C 19,4 C 16,7 C 66 % 1014,5 hPa 0,0 l/m 2 min 0 min 451 W/m 9,0 km/h (2 Bft) 100,00 %
13.06.2018 15:34 17,8 C 19,4 C 16,7 C 66 % 1014,6 hPa 0,0 l/m 2 min 0 min 469 W/m 18,0 km/h (3 Bft) 100,00 %
13.06.2018 15:36 17,9 C 19,4 C 16,7 C 66 % 1014,6 hPa 0,0 l/m 2 min 0 min 473 W/m 13,5 km/h (3 Bft) 97,87 %
13.06.2018 15:38 17,9 C 19,4 C 16,7 C 65 % 1014,5 hPa 0,0 l/m 2 min 0 min 405 W/m 15,8 km/h (3 Bft) 100,00 %
13.06.2018 15:40 17,9 C 18,9 C 16,7 C 65 % 1014,5 hPa 0,0 l/m 2 min 0 min 419 W/m 11,3 km/h (2 Bft) 100,00 %
13.06.2018 15:42 17,9 C 19,4 C 16,7 C 65 % 1014,5 hPa 0,0 l/m 2 min 0 min 478 W/m 11,3 km/h (2 Bft) 100,00 %
13.06.2018 15:44 17,9 C 19,4 C 16,7 C 65 % 1014,6 hPa 0,0 l/m 2 min 0 min 455 W/m 11,3 km/h (2 Bft) 100,00 %
13.06.2018 15:46 18,0 C 20,6 C 16,7 C 66 % 1014,6 hPa 0,0 l/m 2 min 0 min 765 W/m 6,8 km/h (2 Bft) 100,00 %
13.06.2018 15:48 18,1 C 22,2 C 17,2 C 67 % 1014,5 hPa 0,0 l/m 2 min 0 min 765 W/m 13,5 km/h (3 Bft) 100,00 %
13.06.2018 15:50 18,2 C 23,3 C 17,2 C 67 % 1014,6 hPa 0,0 l/m 2 min 0 min 877 W/m 11,3 km/h (2 Bft) 100,00 %
13.06.2018 15:52 18,4 C 23,9 C 17,2 C 67 % 1014,6 hPa 0,0 l/m 2 min 0 min 1006 W/m 13,5 km/h (3 Bft) 97,87 %
13.06.2018 15:54 18,6 C 24,4 C 17,2 C 67 % 1014,6 hPa 0,0 l/m 2 min 0 min 998 W/m 13,5 km/h (3 Bft) 100,00 %
13.06.2018 15:56 18,7 C 25,0 C 17,8 C 66 % 1014,4 hPa 0,0 l/m 2 min 0 min 1058 W/m 15,8 km/h (3 Bft) 100,00 %
13.06.2018 15:58 18,8 C 23,9 C 17,8 C 65 % 1014,3 hPa 0,0 l/m 2 min 0 min 951 W/m 11,3 km/h (2 Bft) 97,87 %
13.06.2018 16:00 18,9 C 22,2 C 17,2 C 65 % 1014,3 hPa 0,0 l/m 0 min 0 min 282 W/m 11,3 km/h (2 Bft) 97,87 %
13.06.2018 16:02 18,9 C 21,1 C 17,2 C 65 % 1014,3 hPa 0,0 l/m 0 min 0 min 237 W/m 6,8 km/h (2 Bft) 97,83 %
13.06.2018 16:04 18,9 C 20,0 C 17,2 C 65 % 1014,4 hPa 0,0 l/m 0 min 0 min 211 W/m 11,3 km/h (2 Bft) 95,74 %
13.06.2018 16:06 18,9 C 19,4 C 17,2 C 64 % 1014,3 hPa 0,0 l/m 0 min 0 min 219 W/m 15,8 km/h (3 Bft) 97,87 %
13.06.2018 16:08 18,8 C 18,9 C 17,2 C 64 % 1014,4 hPa 0,0 l/m 0 min 0 min 240 W/m 15,8 km/h (3 Bft) 97,87 %
13.06.2018 16:10 18,8 C 18,9 C 16,7 C 63 % 1014,4 hPa 0,0 l/m 0 min 0 min 260 W/m 18,0 km/h (3 Bft) 95,74 %
13.06.2018 16:12 18,7 C 18,9 C 16,7 C 64 % 1014,4 hPa 0,0 l/m 0 min 0 min 279 W/m 13,5 km/h (3 Bft) 97,87 %
13.06.2018 16:14 18,6 C 18,9 C 16,7 C 64 % 1014,5 hPa 0,0 l/m 0 min 0 min 296 W/m 9,0 km/h (2 Bft) 97,83 %
13.06.2018 16:16 18,6 C 18,9 C 16,7 C 64 % 1014,4 hPa 0,0 l/m 0 min 0 min 305 W/m 15,8 km/h (3 Bft) 100,00 %
13.06.2018 16:18 18,6 C 18,9 C 16,7 C 64 % 1014,4 hPa 0,0 l/m 0 min 0 min 313 W/m 15,8 km/h (3 Bft) 97,87 %
13.06.2018 16:20 18,5 C 18,9 C 16,7 C 64 % 1014,4 hPa 0,0 l/m 0 min 0 min 318 W/m 15,8 km/h (3 Bft) 97,87 %
13.06.2018 16:22 18,4 C 18,9 C 16,7 C 64 % 1014,4 hPa 0,0 l/m 0 min 0 min 328 W/m 11,3 km/h (2 Bft) 95,74 %
13.06.2018 16:24 18,4 C 19,4 C 16,7 C 65 % 1014,4 hPa 0,0 l/m 0 min 0 min 344 W/m 6,8 km/h (2 Bft) 95,74 %
13.06.2018 16:26 18,4 C 19,4 C 17,2 C 65 % 1014,4 hPa 0,0 l/m 2 min 0 min 368 W/m 13,5 km/h (3 Bft) 95,65 %
13.06.2018 16:28 18,4 C 19,4 C 17,2 C 65 % 1014,4 hPa 0,0 l/m 2 min 0 min 409 W/m 24,8 km/h (4 Bft) 95,74 %
13.06.2018 16:30 18,4 C 19,4 C 17,2 C 63 % 1014,4 hPa 0,0 l/m 2 min 0 min 395 W/m 13,5 km/h (3 Bft) 95,74 %
13.06.2018 16:32 18,4 C 20,6 C 17,2 C 63 % 1014,4 hPa 0,0 l/m 2 min 0 min 446 W/m 15,8 km/h (3 Bft) 95,74 %
13.06.2018 16:34 18,5 C 21,7 C 17,2 C 63 % 1014,3 hPa 0,0 l/m 2 min 0 min 466 W/m 22,5 km/h (4 Bft) 93,62 %
13.06.2018 16:36 18,6 C 21,1 C 17,8 C 63 % 1014,3 hPa 0,0 l/m 2 min 0 min 471 W/m 18,0 km/h (3 Bft) 95,83 %
13.06.2018 16:38 18,7 C 20,6 C 17,2 C 63 % 1014,4 hPa 0,0 l/m 2 min 0 min 452 W/m 20,3 km/h (4 Bft) 95,65 %
13.06.2018 16:40 18,7 C 20,6 C 17,2 C 63 % 1014,4 hPa 0,0 l/m 2 min 0 min 463 W/m 13,5 km/h (3 Bft) 95,74 %
13.06.2018 16:42 18,8 C 20,6 C 17,2 C 63 % 1014,4 hPa 0,0 l/m 2 min 0 min 437 W/m 15,8 km/h (3 Bft) 95,74 %
13.06.2018 16:44 18,8 C 20,6 C 17,2 C 64 % 1014,4 hPa 0,0 l/m 2 min 0 min 410 W/m 15,8 km/h (3 Bft) 95,74 %
13.06.2018 16:46 18,8 C 20,6 C 17,2 C 64 % 1014,5 hPa 0,0 l/m 2 min 0 min 419 W/m 13,5 km/h (3 Bft) 95,74 %
13.06.2018 16:48 18,8 C 20,0 C 17,2 C 64 % 1014,5 hPa 0,0 l/m 2 min 0 min 410 W/m 20,3 km/h (4 Bft) 95,74 %
13.06.2018 16:50 18,8 C 19,4 C 17,2 C 64 % 1014,4 hPa 0,0 l/m 2 min 0 min 371 W/m 13,5 km/h (3 Bft) 93,48 %
13.06.2018 16:52 18,8 C 19,4 C 17,2 C 64 % 1014,4 hPa 0,0 l/m 2 min 0 min 346 W/m 11,3 km/h (2 Bft) 95,74 %
13.06.2018 16:54 18,8 C 19,4 C 17,2 C 64 % 1014,4 hPa 0,0 l/m 0 min 0 min 319 W/m 20,3 km/h (4 Bft) 95,74 %
13.06.2018 16:56 18,7 C 18,9 C 16,7 C 64 % 1014,5 hPa 0,0 l/m 0 min 0 min 292 W/m 13,5 km/h (3 Bft) 93,62 %
13.06.2018 16:58 18,7 C 18,9 C 16,7 C 64 % 1014,5 hPa 0,0 l/m 0 min 0 min 267 W/m 15,8 km/h (3 Bft) 95,74 %
13.06.2018 17:00 18,6 C 18,9 C 16,7 C 64 % 1014,6 hPa 0,0 l/m 0 min 0 min 245 W/m 13,5 km/h (3 Bft) 97,83 %
13.06.2018 17:02 18,6 C 18,3 C 16,7 C 63 % 1014,5 hPa 0,0 l/m 0 min 0 min 225 W/m 24,8 km/h (4 Bft) 93,62 %
13.06.2018 17:04 18,5 C 18,3 C 16,7 C 63 % 1014,6 hPa 0,0 l/m 0 min 0 min 206 W/m 18,0 km/h (3 Bft) 91,49 %
13.06.2018 17:06 18,4 C 17,8 C 16,7 C 62 % 1014,6 hPa 0,0 l/m 0 min 0 min 196 W/m 13,5 km/h (3 Bft) 93,62 %
13.06.2018 17:08 18,3 C 17,8 C 16,7 C 63 % 1014,6 hPa 0,0 l/m 0 min 0 min 189 W/m 11,3 km/h (2 Bft) 93,62 %
13.06.2018 17:10 18,2 C 17,8 C 16,7 C 64 % 1014,6 hPa 0,0 l/m 0 min 0 min 191 W/m 13,5 km/h (3 Bft) 95,74 %
13.06.2018 17:12 18,2 C 17,8 C 16,1 C 63 % 1014,6 hPa 0,0 l/m 0 min 0 min 193 W/m 11,3 km/h (2 Bft) 95,65 %
13.06.2018 17:14 18,1 C 17,8 C 16,7 C 64 % 1014,7 hPa 0,0 l/m 0 min 0 min 194 W/m 11,3 km/h (2 Bft) 95,74 %
13.06.2018 17:16 17,9 C 17,8 C 16,1 C 64 % 1014,7 hPa 0,0 l/m 0 min 0 min 197 W/m 15,8 km/h (3 Bft) 95,74 %
13.06.2018 17:18 17,9 C 17,8 C 16,1 C 64 % 1014,7 hPa 0,0 l/m 0 min 0 min 205 W/m 15,8 km/h (3 Bft) 95,74 %
13.06.2018 17:20 17,8 C 17,8 C 16,1 C 64 % 1014,8 hPa 0,0 l/m 0 min 0 min 216 W/m 15,8 km/h (3 Bft) 95,74 %
13.06.2018 17:22 17,8 C 17,8 C 16,1 C 65 % 1014,7 hPa 0,0 l/m 0 min 0 min 237 W/m 11,3 km/h (2 Bft) 95,83 %
13.06.2018 17:24 17,7 C 17,8 C 16,7 C 65 % 1014,7 hPa 0,0 l/m 0 min 0 min 261 W/m 9,0 km/h (2 Bft) 97,83 %
13.06.2018 17:26 17,7 C 18,3 C 16,7 C 66 % 1014,6 hPa 0,0 l/m 0 min 0 min 288 W/m 11,3 km/h (2 Bft) 97,87 %
13.06.2018 17:28 17,7 C 18,3 C 16,7 C 66 % 1014,6 hPa 0,0 l/m 2 min 0 min 323 W/m 11,3 km/h (2 Bft) 95,74 %
13.06.2018 17:30 17,7 C 18,3 C 16,7 C 66 % 1014,5 hPa 0,0 l/m 2 min 0 min 324 W/m 15,8 km/h (3 Bft) 97,87 %
13.06.2018 17:32 17,7 C 18,9 C 16,7 C 66 % 1014,6 hPa 0,0 l/m 2 min 0 min 315 W/m 9,0 km/h (2 Bft) 97,87 %
13.06.2018 17:34 17,8 C 18,9 C 16,7 C 67 % 1014,6 hPa 0,0 l/m 2 min 0 min 315 W/m 6,8 km/h (2 Bft) 97,87 %
13.06.2018 17:36 17,8 C 18,9 C 16,7 C 67 % 1014,7 hPa 0,0 l/m 2 min 0 min 316 W/m 4,5 km/h (1 Bft) 95,65 %
13.06.2018 17:38 17,8 C 18,9 C 16,7 C 67 % 1014,6 hPa 0,0 l/m 2 min 0 min 307 W/m 6,8 km/h (2 Bft) 97,87 %
13.06.2018 17:40 17,9 C 18,9 C 16,7 C 66 % 1014,7 hPa 0,0 l/m 2 min 0 min 291 W/m 11,3 km/h (2 Bft) 97,87 %
13.06.2018 17:42 17,9 C 18,9 C 16,7 C 66 % 1014,6 hPa 0,0 l/m 2 min 0 min 287 W/m 9,0 km/h (2 Bft) 97,87 %
13.06.2018 17:44 17,9 C 18,9 C 16,7 C 65 % 1014,6 hPa 0,0 l/m 2 min 0 min 288 W/m 15,8 km/h (3 Bft) 95,74 %
13.06.2018 17:46 17,9 C 18,9 C 16,7 C 65 % 1014,6 hPa 0,0 l/m 2 min 0 min 294 W/m 11,3 km/h (2 Bft) 97,87 %
13.06.2018 17:48 17,9 C 18,9 C 16,7 C 65 % 1014,6 hPa 0,0 l/m 2 min 0 min 309 W/m 11,3 km/h (2 Bft) 100,00 %
13.06.2018 17:50 18,0 C 18,9 C 16,7 C 65 % 1014,5 hPa 0,0 l/m 2 min 0 min 320 W/m 9,0 km/h (2 Bft) 100,00 %
13.06.2018 17:52 18,0 C 18,9 C 16,7 C 65 % 1014,5 hPa 0,0 l/m 2 min 0 min 312 W/m 15,8 km/h (3 Bft) 97,92 %
13.06.2018 17:54 18,0 C 18,9 C 16,7 C 65 % 1014,5 hPa 0,0 l/m 2 min 0 min 346 W/m 6,8 km/h (2 Bft) 100,00 %
13.06.2018 17:56 18,1 C 19,4 C 17,2 C 65 % 1014,5 hPa 0,0 l/m 2 min 0 min 346 W/m 11,3 km/h (2 Bft) 100,00 %
13.06.2018 17:58 18,1 C 19,4 C 17,2 C 66 % 1014,5 hPa 0,0 l/m 2 min 0 min 265 W/m 15,8 km/h (3 Bft) 100,00 %
13.06.2018 18:00 18,1 C 18,9 C 16,7 C 66 % 1014,5 hPa 0,0 l/m 0 min 0 min 219 W/m 6,8 km/h (2 Bft) 97,83 %
13.06.2018 18:02 18,2 C 18,9 C 16,7 C 66 % 1014,5 hPa 0,0 l/m 0 min 0 min 216 W/m 11,3 km/h (2 Bft) 100,00 %
13.06.2018 18:04 18,2 C 18,9 C 16,7 C 66 % 1014,5 hPa 0,0 l/m 0 min 0 min 220 W/m 9,0 km/h (2 Bft) 100,00 %
13.06.2018 18:07 18,2 C 18,3 C 16,7 C 65 % 1014,5 hPa 0,0 l/m 0 min 0 min 234 W/m 18,0 km/h (3 Bft) 100,00 %
13.06.2018 18:08 18,2 C 18,3 C 16,7 C 65 % 1014,5 hPa 0,0 l/m 0 min 0 min 231 W/m 18,0 km/h (3 Bft) 100,00 %
13.06.2018 18:10 18,1 C 18,3 C 16,7 C 65 % 1014,5 hPa 0,0 l/m 0 min 0 min 230 W/m 9,0 km/h (2 Bft) 100,00 %
13.06.2018 18:12 18,1 C 18,3 C 16,7 C 65 % 1014,6 hPa 0,0 l/m 0 min 0 min 228 W/m 9,0 km/h (2 Bft) 100,00 %
13.06.2018 18:14 18,1 C 18,3 C 16,7 C 64 % 1014,6 hPa 0,0 l/m 0 min 0 min 230 W/m 15,8 km/h (3 Bft) 100,00 %
13.06.2018 18:16 18,1 C 18,3 C 16,7 C 64 % 1014,5 hPa 0,0 l/m 2 min 0 min 241 W/m 15,8 km/h (3 Bft) 100,00 %
13.06.2018 18:18 18,0 C 18,3 C 16,7 C 65 % 1014,6 hPa 0,0 l/m 0 min 0 min 237 W/m 9,0 km/h (2 Bft) 100,00 %
13.06.2018 18:20 17,9 C 18,3 C 16,7 C 65 % 1014,5 hPa 0,0 l/m 0 min 0 min 215 W/m 6,8 km/h (2 Bft) 100,00 %
13.06.2018 18:22 17,9 C 18,3 C 16,7 C 65 % 1014,5 hPa 0,0 l/m 0 min 0 min 204 W/m 9,0 km/h (2 Bft) 100,00 %
13.06.2018 18:24 17,9 C 18,3 C 16,7 C 66 % 1014,7 hPa 0,0 l/m 0 min 0 min 198 W/m 13,5 km/h (3 Bft) 100,00 %
13.06.2018 18:26 17,9 C 17,8 C 16,7 C 66 % 1014,7 hPa 0,0 l/m 0 min 0 min 196 W/m 11,3 km/h (2 Bft) 97,87 %
13.06.2018 18:28 17,9 C 17,8 C 16,7 C 66 % 1014,6 hPa 0,0 l/m 0 min 0 min 200 W/m 11,3 km/h (2 Bft) 100,00 %
13.06.2018 18:30 17,8 C 17,8 C 16,7 C 66 % 1014,7 hPa 0,0 l/m 0 min 0 min 202 W/m 11,3 km/h (2 Bft) 100,00 %
13.06.2018 18:32 17,8 C 17,8 C 16,7 C 66 % 1014,7 hPa 0,0 l/m 0 min 0 min 203 W/m 11,3 km/h (2 Bft) 97,87 %
13.06.2018 18:34 17,8 C 17,8 C 16,7 C 66 % 1014,6 hPa 0,0 l/m 0 min 0 min 207 W/m 13,5 km/h (3 Bft) 100,00 %
13.06.2018 18:36 17,8 C 17,8 C 16,7 C 66 % 1014,7 hPa 0,0 l/m 0 min 0 min 215 W/m 11,3 km/h (2 Bft) 100,00 %
13.06.2018 18:38 17,8 C 17,8 C 16,7 C 66 % 1014,7 hPa 0,0 l/m 0 min 0 min 215 W/m 9,0 km/h (2 Bft) 100,00 %
13.06.2018 18:40 17,8 C 17,8 C 16,7 C 66 % 1014,7 hPa 0,0 l/m 0 min 0 min 211 W/m 9,0 km/h (2 Bft) 97,87 %
13.06.2018 18:42 17,7 C 17,8 C 16,7 C 66 % 1014,7 hPa 0,0 l/m 2 min 0 min 212 W/m 13,5 km/h (3 Bft) 100,00 %
13.06.2018 18:44 17,7 C 17,8 C 16,7 C 65 % 1014,7 hPa 0,0 l/m 2 min 0 min 212 W/m 6,8 km/h (2 Bft) 100,00 %
13.06.2018 18:46 17,7 C 17,8 C 16,7 C 66 % 1014,7 hPa 0,0 l/m 0 min 0 min 199 W/m 9,0 km/h (2 Bft) 97,87 %
13.06.2018 18:48 17,7 C 18,3 C 16,7 C 66 % 1014,7 hPa 0,0 l/m 2 min 0 min 204 W/m 6,8 km/h (2 Bft) 100,00 %
13.06.2018 18:50 17,7 C 17,8 C 16,7 C 66 % 1014,8 hPa 0,0 l/m 2 min 0 min 203 W/m 9,0 km/h (2 Bft) 100,00 %
13.06.2018 18:52 17,7 C 17,8 C 16,7 C 66 % 1014,8 hPa 0,0 l/m 0 min 0 min 193 W/m 13,5 km/h (3 Bft) 97,87 %
13.06.2018 18:54 17,7 C 17,8 C 16,1 C 66 % 1014,7 hPa 0,0 l/m 0 min 0 min 183 W/m 6,8 km/h (2 Bft) 100,00 %
13.06.2018 18:56 17,7 C 17,8 C 16,1 C 67 % 1014,7 hPa 0,0 l/m 0 min 0 min 174 W/m 11,3 km/h (2 Bft) 100,00 %
13.06.2018 18:58 17,7 C 17,8 C 16,1 C 67 % 1014,7 hPa 0,0 l/m 0 min 0 min 156 W/m 4,5 km/h (1 Bft) 100,00 %
13.06.2018 19:00 17,6 C 17,8 C 16,1 C 67 % 1014,8 hPa 0,0 l/m 0 min 0 min 137 W/m 2,3 km/h (1 Bft) 100,00 %
13.06.2018 19:02 17,6 C 17,8 C 16,1 C 67 % 1014,8 hPa 0,0 l/m 0 min 0 min 122 W/m 11,3 km/h (2 Bft) 100,00 %
13.06.2018 19:04 17,6 C 17,2 C 16,1 C 67 % 1014,9 hPa 0,0 l/m 0 min 0 min 112 W/m 13,5 km/h (3 Bft) 100,00 %
13.06.2018 19:06 17,6 C 17,2 C 16,1 C 67 % 1014,9 hPa 0,0 l/m 0 min 0 min 107 W/m 15,8 km/h (3 Bft) 100,00 %
13.06.2018 19:08 17,6 C 17,2 C 16,1 C 67 % 1014,8 hPa 0,0 l/m 0 min 0 min 102 W/m 6,8 km/h (2 Bft) 100,00 %
13.06.2018 19:10 17,5 C 17,2 C 16,1 C 68 % 1014,9 hPa 0,0 l/m 0 min 0 min 98 W/m 11,3 km/h (2 Bft) 100,00 %
13.06.2018 19:12 17,4 C 17,2 C 16,1 C 67 % 1015,0 hPa 0,0 l/m 0 min 0 min 89 W/m 9,0 km/h (2 Bft) 100,00 %
13.06.2018 19:14 17,4 C 16,7 C 16,1 C 68 % 1015,0 hPa 0,0 l/m 0 min 0 min 90 W/m 6,8 km/h (2 Bft) 97,87 %
13.06.2018 19:16 17,3 C 16,7 C 16,1 C 68 % 1015,1 hPa 0,0 l/m 0 min 0 min 87 W/m 6,8 km/h (2 Bft) 100,00 %
13.06.2018 19:18 17,3 C 16,7 C 16,1 C 68 % 1015,1 hPa 0,0 l/m 0 min 0 min 84 W/m 4,5 km/h (1 Bft) 100,00 %
13.06.2018 19:20 17,3 C 16,7 C 16,1 C 68 % 1015,1 hPa 0,0 l/m 0 min 0 min 83 W/m 2,3 km/h (1 Bft) 100,00 %
13.06.2018 19:22 17,3 C 16,7 C 16,1 C 67 % 1015,1 hPa 0,0 l/m 0 min 0 min 85 W/m 6,8 km/h (2 Bft) 97,83 %
13.06.2018 19:24 17,2 C 16,7 C 16,1 C 67 % 1015,0 hPa 0,0 l/m 0 min 0 min 89 W/m 9,0 km/h (2 Bft) 100,00 %
13.06.2018 19:26 17,2 C 16,7 C 16,1 C 67 % 1015,1 hPa 0,0 l/m 0 min 0 min 88 W/m 4,5 km/h (1 Bft) 97,87 %
13.06.2018 19:28 17,2 C 16,7 C 16,1 C 67 % 1015,1 hPa 0,0 l/m 0 min 0 min 84 W/m 6,8 km/h (2 Bft) 97,87 %
13.06.2018 19:30 17,2 C 16,7 C 16,1 C 67 % 1015,2 hPa 0,0 l/m 0 min 0 min 84 W/m 6,8 km/h (2 Bft) 97,87 %
13.06.2018 19:32 17,2 C 16,7 C 16,1 C 68 % 1015,2 hPa 0,0 l/m 0 min 0 min 89 W/m 9,0 km/h (2 Bft) 95,74 %
13.06.2018 19:34 17,2 C 16,7 C 16,1 C 68 % 1015,2 hPa 0,0 l/m 0 min 0 min 94 W/m 9,0 km/h (2 Bft) 97,83 %
13.06.2018 19:36 17,2 C 16,7 C 16,1 C 68 % 1015,3 hPa 0,0 l/m 0 min 0 min 95 W/m 9,0 km/h (2 Bft) 95,74 %
13.06.2018 19:38 17,2 C 16,7 C 16,1 C 68 % 1015,3 hPa 0,0 l/m 0 min 0 min 97 W/m 11,3 km/h (2 Bft) 93,62 %
13.06.2018 19:40 17,1 C 16,7 C 16,1 C 68 % 1015,2 hPa 0,0 l/m 0 min 0 min 99 W/m 9,0 km/h (2 Bft) 93,62 %
13.06.2018 19:42 17,1 C 16,7 C 16,1 C 68 % 1015,2 hPa 0,0 l/m 0 min 0 min 104 W/m 9,0 km/h (2 Bft) 93,62 %
13.06.2018 19:44 17,1 C 16,7 C 16,1 C 68 % 1015,2 hPa 0,0 l/m 0 min 0 min 105 W/m 9,0 km/h (2 Bft) 93,48 %
13.06.2018 19:46 17,1 C 16,7 C 16,1 C 68 % 1015,2 hPa 0,0 l/m 0 min 0 min 102 W/m 9,0 km/h (2 Bft) 93,62 %
13.06.2018 19:48 17,1 C 16,7 C 16,1 C 68 % 1015,2 hPa 0,0 l/m 0 min 0 min 98 W/m 2,3 km/h (1 Bft) 93,62 %
13.06.2018 19:50 17,1 C 16,7 C 16,1 C 68 % 1015,2 hPa 0,0 l/m 0 min 0 min 96 W/m 9,0 km/h (2 Bft) 93,62 %
13.06.2018 19:52 17,1 C 16,7 C 16,1 C 68 % 1015,2 hPa 0,0 l/m 0 min 0 min 93 W/m 6,8 km/h (2 Bft) 91,49 %
13.06.2018 19:54 17,1 C 16,7 C 16,1 C 68 % 1015,3 hPa 0,0 l/m 0 min 0 min 94 W/m 6,8 km/h (2 Bft) 93,62 %
13.06.2018 19:56 17,1 C 16,7 C 16,1 C 68 % 1015,2 hPa 0,0 l/m 0 min 0 min 97 W/m 9,0 km/h (2 Bft) 91,30 %
13.06.2018 19:58 17,1 C 16,7 C 16,1 C 68 % 1015,2 hPa 0,0 l/m 0 min 0 min 99 W/m 6,8 km/h (2 Bft) 93,62 %
13.06.2018 20:00 17,1 C 16,7 C 16,1 C 69 % 1015,1 hPa 0,0 l/m 0 min 0 min 101 W/m 4,5 km/h (1 Bft) 91,49 %
13.06.2018 20:02 17,1 C 16,7 C 16,1 C 69 % 1015,2 hPa 0,0 l/m 0 min 0 min 94 W/m 4,5 km/h (1 Bft) 95,74 %
13.06.2018 20:04 17,1 C 16,7 C 16,1 C 69 % 1015,2 hPa 0,0 l/m 0 min 0 min 91 W/m 2,3 km/h (1 Bft) 93,62 %
13.06.2018 20:06 17,1 C 16,7 C 16,1 C 69 % 1015,1 hPa 0,0 l/m 0 min 0 min 87 W/m 6,8 km/h (2 Bft) 93,62 %
13.06.2018 20:08 17,1 C 16,7 C 16,1 C 69 % 1015,1 hPa 0,0 l/m 0 min 0 min 86 W/m 6,8 km/h (2 Bft) 91,30 %
13.06.2018 20:10 17,1 C 16,7 C 16,1 C 69 % 1015,1 hPa 0,0 l/m 0 min 0 min 83 W/m 9,0 km/h (2 Bft) 93,62 %
13.06.2018 20:12 17,1 C 16,7 C 16,1 C 69 % 1015,1 hPa 0,0 l/m 0 min 0 min 82 W/m 4,5 km/h (1 Bft) 93,62 %
13.06.2018 20:14 17,0 C 16,7 C 15,6 C 69 % 1015,2 hPa 0,0 l/m 0 min 0 min 83 W/m 9,0 km/h (2 Bft) 91,49 %
13.06.2018 20:16 17,0 C 16,7 C 15,6 C 68 % 1015,1 hPa 0,0 l/m 0 min 0 min 81 W/m 6,8 km/h (2 Bft) 95,74 %
13.06.2018 20:18 17,0 C 16,7 C 15,6 C 68 % 1015,1 hPa 0,0 l/m 0 min 0 min 73 W/m 9,0 km/h (2 Bft) 93,62 %
13.06.2018 20:20 16,9 C 16,7 C 15,6 C 68 % 1015,0 hPa 0,0 l/m 0 min 0 min 64 W/m 9,0 km/h (2 Bft) 93,48 %
13.06.2018 20:22 16,9 C 16,7 C 15,6 C 68 % 1015,0 hPa 0,0 l/m 0 min 0 min 62 W/m 4,5 km/h (1 Bft) 91,49 %
13.06.2018 20:24 16,9 C 16,7 C 15,6 C 68 % 1015,0 hPa 0,0 l/m 0 min 0 min 62 W/m 4,5 km/h (1 Bft) 93,62 %
13.06.2018 20:26 16,9 C 16,7 C 15,6 C 69 % 1015,0 hPa 0,0 l/m 0 min 0 min 62 W/m 2,3 km/h (1 Bft) 97,87 %
13.06.2018 20:28 16,9 C 16,7 C 15,6 C 69 % 1015,1 hPa 0,0 l/m 0 min 0 min 62 W/m 2,3 km/h (1 Bft) 100,00 %
13.06.2018 20:30 16,9 C 16,1 C 15,6 C 69 % 1015,0 hPa 0,0 l/m 0 min 0 min 63 W/m 4,5 km/h (1 Bft) 100,00 %
13.06.2018 20:32 16,9 C 16,1 C 15,6 C 69 % 1015,1 hPa 0,0 l/m 0 min 0 min 62 W/m 2,3 km/h (1 Bft) 95,65 %
13.06.2018 20:34 16,9 C 16,1 C 15,6 C 69 % 1015,1 hPa 0,0 l/m 0 min 0 min 59 W/m 4,5 km/h (1 Bft) 97,87 %
13.06.2018 20:36 16,9 C 16,1 C 15,6 C 69 % 1015,0 hPa 0,0 l/m 0 min 0 min 60 W/m 4,5 km/h (1 Bft) 100,00 %
13.06.2018 20:38 16,8 C 16,1 C 15,6 C 69 % 1015,0 hPa 0,0 l/m 0 min 0 min 57 W/m 0,0 km/h (0 Bft) 100,00 %
13.06.2018 20:40 16,8 C 16,1 C 15,6 C 70 % 1015,0 hPa 0,0 l/m 0 min 0 min 51 W/m 0,0 km/h (0 Bft) 100,00 %
13.06.2018 20:42 16,8 C 16,1 C 15,6 C 70 % 1015,0 hPa 0,0 l/m 0 min 0 min 48 W/m 0,0 km/h (0 Bft) 93,62 %
13.06.2018 20:44 16,8 C 16,1 C 15,6 C 70 % 1015,0 hPa 0,0 l/m 0 min 0 min 46 W/m 4,5 km/h (1 Bft) 100,00 %
13.06.2018 20:46 16,8 C 16,1 C 15,6 C 70 % 1015,0 hPa 0,0 l/m 0 min 0 min 44 W/m 4,5 km/h (1 Bft) 100,00 %
13.06.2018 20:48 16,7 C 15,6 C 15,6 C 70 % 1015,0 hPa 0,0 l/m 0 min 0 min 40 W/m 0,0 km/h (0 Bft) 100,00 %
13.06.2018 20:50 16,7 C 15,6 C 15,0 C 71 % 1015,1 hPa 0,0 l/m 0 min 0 min 38 W/m 2,3 km/h (1 Bft) 97,87 %
13.06.2018 20:52 16,7 C 15,6 C 15,0 C 71 % 1015,0 hPa 0,0 l/m 0 min 0 min 35 W/m 2,3 km/h (1 Bft) 100,00 %
13.06.2018 20:54 16,7 C 15,6 C 15,0 C 71 % 1015,1 hPa 0,0 l/m 0 min 0 min 35 W/m 0,0 km/h (0 Bft) 100,00 %
13.06.2018 20:57 16,6 C 15,6 C 15,0 C 71 % 1015,1 hPa 0,0 l/m 0 min 0 min 33 W/m 0,0 km/h (0 Bft) 100,00 %
13.06.2018 20:58 16,6 C 15,6 C 15,0 C 71 % 1015,1 hPa 0,0 l/m 0 min 0 min 27 W/m 0,0 km/h (0 Bft) 100,00 %
13.06.2018 21:00 16,6 C 15,6 C 15,0 C 71 % 1015,1 hPa 0,0 l/m 0 min 0 min 24 W/m 0,0 km/h (0 Bft) 100,00 %
13.06.2018 21:06 16,5 C 15,0 C 14,4 C 72 % 1015,0 hPa 0,0 l/m 0 min 0 min 21 W/m 0,0 km/h (0 Bft) 100,00 %
13.06.2018 21:08 16,4 C 15,0 C 14,4 C 72 % 1015,0 hPa 0,0 l/m 0 min 0 min 19 W/m 2,3 km/h (1 Bft) 100,00 %
13.06.2018 21:10 16,4 C 15,0 C 14,4 C 71 % 1015,1 hPa 0,0 l/m 0 min 0 min 18 W/m 4,5 km/h (1 Bft) 100,00 %
13.06.2018 21:12 16,4 C 15,0 C 14,4 C 71 % 1015,1 hPa 0,0 l/m 0 min 0 min 18 W/m 2,3 km/h (1 Bft) 94,44 %
13.06.2018 21:14 16,3 C 14,4 C 14,4 C 71 % 1015,0 hPa 0,0 l/m 0 min 0 min 16 W/m 2,3 km/h (1 Bft) 100,00 %
13.06.2018 21:16 16,3 C 14,4 C 14,4 C 72 % 1015,1 hPa 0,0 l/m 0 min 0 min 15 W/m 2,3 km/h (1 Bft) 100,00 %
13.06.2018 21:18 16,2 C 14,4 C 14,4 C 72 % 1015,1 hPa 0,0 l/m 0 min 0 min 14 W/m 0,0 km/h (0 Bft) 100,00 %
13.06.2018 21:20 16,2 C 14,4 C 13,9 C 72 % 1015,1 hPa 0,0 l/m 0 min 0 min 14 W/m 2,3 km/h (1 Bft) 100,00 %
13.06.2018 21:22 16,1 C 14,4 C 13,9 C 72 % 1015,1 hPa 0,0 l/m 0 min 0 min 12 W/m 0,0 km/h (0 Bft) 100,00 %
13.06.2018 21:24 16,1 C 14,4 C 13,9 C 72 % 1015,1 hPa 0,0 l/m 0 min 0 min 11 W/m 0,0 km/h (0 Bft) 100,00 %
13.06.2018 21:26 16,0 C 14,4 C 13,9 C 73 % 1015,1 hPa 0,0 l/m 0 min 0 min 11 W/m 2,3 km/h (1 Bft) 100,00 %
13.06.2018 21:28 15,9 C 14,4 C 13,9 C 73 % 1015,1 hPa 0,0 l/m 0 min 0 min 9 W/m 0,0 km/h (0 Bft) 100,00 %
13.06.2018 21:30 15,9 C 14,4 C 13,9 C 73 % 1015,1 hPa 0,0 l/m 0 min 0 min 9 W/m 2,3 km/h (1 Bft) 100,00 %
13.06.2018 21:32 15,9 C 14,4 C 13,9 C 73 % 1015,1 hPa 0,0 l/m 0 min 0 min 9 W/m 2,3 km/h (1 Bft) 100,00 %
13.06.2018 21:34 15,8 C 14,4 C 13,9 C 73 % 1015,0 hPa 0,0 l/m 0 min 0 min 8 W/m 0,0 km/h (0 Bft) 100,00 %
13.06.2018 21:36 15,8 C 14,4 C 13,9 C 73 % 1015,0 hPa 0,0 l/m 0 min 0 min 7 W/m 0,0 km/h (0 Bft) 97,87 %
13.06.2018 21:38 15,7 C 13,9 C 13,3 C 73 % 1015,1 hPa 0,0 l/m 0 min 0 min 7 W/m 0,0 km/h (0 Bft) 100,00 %
13.06.2018 21:40 15,7 C 13,9 C 13,3 C 74 % 1015,1 hPa 0,0 l/m 0 min 0 min 7 W/m 0,0 km/h (0 Bft) 97,92 %
13.06.2018 21:42 15,6 C 13,9 C 13,3 C 74 % 1015,2 hPa 0,0 l/m 0 min 0 min 7 W/m 0,0 km/h (0 Bft) 97,92 %
13.06.2018 21:44 15,6 C 13,9 C 13,3 C 74 % 1015,1 hPa 0,0 l/m 0 min 0 min 5 W/m 0,0 km/h (0 Bft) 100,00 %
13.06.2018 21:46 15,5 C 13,9 C 13,3 C 74 % 1015,2 hPa 0,0 l/m 0 min 0 min 5 W/m 0,0 km/h (0 Bft) 100,00 %
13.06.2018 21:48 15,4 C 13,9 C 13,3 C 74 % 1015,2 hPa 0,0 l/m 0 min 0 min 5 W/m 0,0 km/h (0 Bft) 100,00 %
13.06.2018 21:50 15,4 C 13,9 C 13,3 C 74 % 1015,2 hPa 0,0 l/m 0 min 0 min 4 W/m 0,0 km/h (0 Bft) 100,00 %
13.06.2018 21:52 15,4 C 13,9 C 12,8 C 75 % 1015,2 hPa 0,0 l/m 0 min 0 min 0 W/m 0,0 km/h (0 Bft) 98,28 %
13.06.2018 21:54 15,3 C 13,3 C 12,8 C 75 % 1015,2 hPa 0,0 l/m 0 min 0 min 0 W/m 0,0 km/h (0 Bft) 100,00 %
13.06.2018 21:56 15,3 C 13,3 C 12,8 C 75 % 1015,2 hPa 0,0 l/m 0 min 0 min 0 W/m 0,0 km/h (0 Bft) 100,00 %
13.06.2018 21:58 15,2 C 13,3 C 12,8 C 76 % 1015,2 hPa 0,0 l/m 0 min 0 min 0 W/m 0,0 km/h (0 Bft) 100,00 %
13.06.2018 22:00 15,1 C 13,3 C 12,8 C 76 % 1015,2 hPa 0,0 l/m 0 min 0 min 0 W/m 0,0 km/h (0 Bft) 100,00 %
13.06.2018 22:02 15,1 C 13,3 C 12,8 C 77 % 1015,2 hPa 0,0 l/m 0 min 0 min 0 W/m 0,0 km/h (0 Bft) 100,00 %
13.06.2018 22:04 15,0 C 12,8 C 12,8 C 77 % 1015,2 hPa 0,0 l/m 0 min 0 min 0 W/m 0,0 km/h (0 Bft) 100,00 %
13.06.2018 22:06 14,9 C 12,8 C 12,8 C 77 % 1015,3 hPa 0,0 l/m 0 min 0 min 0 W/m 0,0 km/h (0 Bft) 97,92 %
13.06.2018 22:08 14,9 C 12,8 C 12,8 C 77 % 1015,4 hPa 0,0 l/m 0 min 0 min 0 W/m 0,0 km/h (0 Bft) 100,00 %
13.06.2018 22:10 14,8 C 12,8 C 12,8 C 77 % 1015,4 hPa 0,0 l/m 0 min 0 min 0 W/m 0,0 km/h (0 Bft) 95,83 %
13.06.2018 22:12 14,7 C 12,8 C 12,8 C 78 % 1015,4 hPa 0,0 l/m 0 min 0 min 0 W/m 0,0 km/h (0 Bft) 97,92 %
13.06.2018 22:14 14,7 C 12,8 C 12,2 C 78 % 1015,5 hPa 0,0 l/m 0 min 0 min 0 W/m 0,0 km/h (0 Bft) 100,00 %
13.06.2018 22:16 14,6 C 12,8 C 12,2 C 78 % 1015,5 hPa 0,0 l/m 0 min 0 min 0 W/m 0,0 km/h (0 Bft) 100,00 %
13.06.2018 22:18 14,5 C 12,8 C 12,2 C 78 % 1015,6 hPa 0,0 l/m 0 min 0 min 0 W/m 0,0 km/h (0 Bft) 97,87 %
13.06.2018 22:20 14,4 C 12,2 C 12,2 C 79 % 1015,6 hPa 0,0 l/m 0 min 0 min 0 W/m 0,0 km/h (0 Bft) 97,87 %
13.06.2018 22:22 14,4 C 12,2 C 12,2 C 79 % 1015,6 hPa 0,0 l/m 0 min 0 min 0 W/m 0,0 km/h (0 Bft) 97,87 %
13.06.2018 22:24 14,3 C 12,2 C 12,2 C 79 % 1015,6 hPa 0,0 l/m 0 min 0 min 0 W/m 0,0 km/h (0 Bft) 97,87 %
13.06.2018 22:26 14,3 C 12,2 C 12,2 C 79 % 1015,5 hPa 0,0 l/m 0 min 0 min 0 W/m 0,0 km/h (0 Bft) 97,87 %
13.06.2018 22:28 14,2 C 12,2 C 12,2 C 80 % 1015,4 hPa 0,0 l/m 0 min 0 min 0 W/m 0,0 km/h (0 Bft) 97,83 %
13.06.2018 22:30 14,2 C 12,2 C 12,2 C 80 % 1015,5 hPa 0,0 l/m 0 min 0 min 0 W/m 0,0 km/h (0 Bft) 97,87 %
13.06.2018 22:32 14,2 C 12,2 C 12,2 C 80 % 1015,5 hPa 0,0 l/m 0 min 0 min 0 W/m 0,0 km/h (0 Bft) 97,87 %
13.06.2018 22:34 14,2 C 12,2 C 12,2 C 80 % 1015,5 hPa 0,0 l/m 0 min 0 min 0 W/m 0,0 km/h (0 Bft) 95,74 %
13.06.2018 22:36 14,1 C 12,2 C 12,2 C 80 % 1015,5 hPa 0,0 l/m 0 min 0 min 0 W/m 0,0 km/h (0 Bft) 97,87 %
13.06.2018 22:38 14,0 C 12,2 C 12,2 C 81 % 1015,5 hPa 0,0 l/m 0 min 0 min 0 W/m 0,0 km/h (0 Bft) 93,62 %
13.06.2018 22:40 13,9 C 11,7 C 11,7 C 81 % 1015,5 hPa 0,0 l/m 0 min 0 min 0 W/m 0,0 km/h (0 Bft) 95,65 %
13.06.2018 22:42 13,8 C 11,7 C 11,7 C 81 % 1015,5 hPa 0,0 l/m 0 min 0 min 0 W/m 0,0 km/h (0 Bft) 95,74 %
13.06.2018 22:44 13,8 C 11,7 C 11,7 C 81 % 1015,4 hPa 0,0 l/m 0 min 0 min 0 W/m 0,0 km/h (0 Bft) 95,12 %
13.06.2018 22:46 13,7 C 11,7 C 11,7 C 81 % 1015,5 hPa 0,0 l/m 0 min 0 min 0 W/m 0,0 km/h (0 Bft) 95,83 %
13.06.2018 22:48 13,7 C 11,7 C 11,7 C 81 % 1015,5 hPa 0,0 l/m 0 min 0 min 0 W/m 0,0 km/h (0 Bft) 93,62 %
13.06.2018 22:50 13,6 C 11,7 C 11,7 C 81 % 1015,5 hPa 0,0 l/m 0 min 0 min 0 W/m 0,0 km/h (0 Bft) 95,83 %
13.06.2018 22:52 13,6 C 12,2 C 11,7 C 81 % 1015,5 hPa 0,0 l/m 0 min 0 min 0 W/m 0,0 km/h (0 Bft) 93,75 %
13.06.2018 22:54 13,6 C 12,2 C 11,7 C 81 % 1015,4 hPa 0,0 l/m 0 min 0 min 0 W/m 0,0 km/h (0 Bft) 97,87 %
13.06.2018 22:56 13,5 C 12,2 C 11,7 C 81 % 1015,5 hPa 0,0 l/m 0 min 0 min 0 W/m 0,0 km/h (0 Bft) 97,92 %
13.06.2018 22:58 13,4 C 12,2 C 11,7 C 82 % 1015,4 hPa 0,0 l/m 0 min 0 min 0 W/m 0,0 km/h (0 Bft) 97,92 %
13.06.2018 23:00 13,4 C 12,2 C 11,7 C 82 % 1015,4 hPa 0,0 l/m 0 min 0 min 0 W/m 0,0 km/h (0 Bft) 95,83 %
13.06.2018 23:02 13,3 C 11,7 C 11,7 C 82 % 1015,5 hPa 0,0 l/m 0 min 0 min 0 W/m 0,0 km/h (0 Bft) 97,83 %
13.06.2018 23:04 13,3 C 11,7 C 11,7 C 82 % 1015,5 hPa 0,0 l/m 0 min 0 min 0 W/m 0,0 km/h (0 Bft) 95,74 %
13.06.2018 23:06 13,2 C 11,7 C 11,7 C 82 % 1015,4 hPa 0,0 l/m 0 min 0 min 0 W/m 0,0 km/h (0 Bft) 100,00 %
13.06.2018 23:08 13,2 C 11,1 C 11,7 C 82 % 1015,5 hPa 0,0 l/m 0 min 0 min 0 W/m 0,0 km/h (0 Bft) 95,74 %
13.06.2018 23:10 13,2 C 11,1 C 11,7 C 83 % 1015,5 hPa 0,0 l/m 0 min 0 min 0 W/m 0,0 km/h (0 Bft) 97,87 %
13.06.2018 23:12 13,1 C 11,1 C 11,7 C 83 % 1015,5 hPa 0,0 l/m 0 min 0 min 0 W/m 0,0 km/h (0 Bft) 97,87 %
13.06.2018 23:14 13,1 C 11,1 C 11,7 C 83 % 1015,4 hPa 0,0 l/m 0 min 0 min 0 W/m 0,0 km/h (0 Bft) 97,56 %
13.06.2018 23:16 13,0 C 11,1 C 11,1 C 83 % 1015,4 hPa 0,0 l/m 0 min 0 min 0 W/m 0,0 km/h (0 Bft) 97,87 %
13.06.2018 23:18 13,0 C 11,1 C 11,1 C 83 % 1015,5 hPa 0,0 l/m 0 min 0 min 0 W/m 0,0 km/h (0 Bft) 97,83 %
13.06.2018 23:20 12,9 C 11,1 C 11,1 C 84 % 1015,5 hPa 0,0 l/m 0 min 0 min 0 W/m 0,0 km/h (0 Bft) 97,92 %
13.06.2018 23:22 12,9 C 11,1 C 11,1 C 84 % 1015,4 hPa 0,0 l/m 0 min 0 min 0 W/m 0,0 km/h (0 Bft) 97,92 %
13.06.2018 23:24 12,8 C 11,1 C 11,1 C 84 % 1015,5 hPa 0,0 l/m 0 min 0 min 0 W/m 0,0 km/h (0 Bft) 97,92 %
13.06.2018 23:26 12,8 C 11,1 C 11,1 C 84 % 1015,4 hPa 0,0 l/m 0 min 0 min 0 W/m 0,0 km/h (0 Bft) 95,83 %
13.06.2018 23:28 12,8 C 11,1 C 11,1 C 84 % 1015,5 hPa 0,0 l/m 0 min 0 min 0 W/m 0,0 km/h (0 Bft) 97,87 %
13.06.2018 23:30 12,7 C 11,1 C 11,1 C 84 % 1015,4 hPa 0,0 l/m 0 min 0 min 0 W/m 0,0 km/h (0 Bft) 97,92 %
13.06.2018 23:32 12,7 C 11,1 C 11,1 C 85 % 1015,4 hPa 0,0 l/m 0 min 0 min 0 W/m 0,0 km/h (0 Bft) 95,83 %
13.06.2018 23:34 12,6 C 11,1 C 11,1 C 85 % 1015,5 hPa 0,0 l/m 0 min 0 min 0 W/m 0,0 km/h (0 Bft) 97,87 %
13.06.2018 23:36 12,6 C 11,1 C 11,1 C 85 % 1015,5 hPa 0,0 l/m 0 min 0 min 0 W/m 0,0 km/h (0 Bft) 97,87 %
13.06.2018 23:38 12,6 C 11,1 C 11,1 C 85 % 1015,4 hPa 0,0 l/m 0 min 0 min 0 W/m 0,0 km/h (0 Bft) 95,65 %
13.06.2018 23:40 12,5 C 10,6 C 11,1 C 85 % 1015,3 hPa 0,0 l/m 0 min 2 min 0 W/m 0,0 km/h (0 Bft) 97,87 %
13.06.2018 23:42 12,4 C 10,6 C 11,1 C 85 % 1015,3 hPa 0,0 l/m 0 min 0 min 0 W/m 0,0 km/h (0 Bft) 95,74 %
13.06.2018 23:44 12,4 C 10,6 C 11,1 C 85 % 1015,4 hPa 0,0 l/m 0 min 0 min 0 W/m 0,0 km/h (0 Bft) 95,74 %
13.06.2018 23:46 12,4 C 10,6 C 11,1 C 85 % 1015,3 hPa 0,0 l/m 0 min 0 min 0 W/m 0,0 km/h (0 Bft) 97,56 %
13.06.2018 23:48 12,3 C 10,6 C 10,6 C 85 % 1015,3 hPa 0,0 l/m 0 min 0 min 0 W/m 0,0 km/h (0 Bft) 97,92 %
13.06.2018 23:50 12,3 C 10,6 C 10,6 C 85 % 1015,3 hPa 0,0 l/m 0 min 0 min 0 W/m 0,0 km/h (0 Bft) 95,83 %
13.06.2018 23:52 12,2 C 10,6 C 10,6 C 85 % 1015,3 hPa 0,0 l/m 0 min 0 min 0 W/m 0,0 km/h (0 Bft) 97,87 %
13.06.2018 23:54 12,2 C 10,6 C 10,6 C 85 % 1015,3 hPa 0,0 l/m 0 min 0 min 0 W/m 0,0 km/h (0 Bft) 97,92 %
13.06.2018 23:56 12,2 C 10,6 C 10,6 C 85 % 1015,4 hPa 0,0 l/m 0 min 0 min 0 W/m 0,0 km/h (0 Bft) 93,75 %
13.06.2018 23:58 12,1 C 10,6 C 10,6 C 85 % 1015,3 hPa 0,0 l/m 0 min 0 min 0 W/m 0,0 km/h (0 Bft) 97,87 %
_ Min-Zeit 02:56 23:40 23:48 17:06 00:12 - - - - 01:42 07:12
Minimum _ 12,0 C 10,6 C 10,6 C 62 % 1012,4 hPa - - - - 0,0 km/h (0 Bft) 89,36 %
_ Max-Zeit 16:00 15:56 15:56 03:52 22:18 00:00 12:07 23:40 15:56 15:08 00:16
Maximum _ 18,9 C 25,0 C 17,8 C 93 % 1015,6 hPa 0,0 l/m 3 min 2 min 1058 W/m 29,3 km/h
W-NW (5 Bft)
100,00 %
Durchschnitt _ 15,1 C 15,1 C 14,0 C 79 % 1014,1 hPa #0,0 l/m #3:22 h #2 min. 231 W/m 8,3 km/h (2 Bft) 97,57 %
© 2018 W. Hausmann